Wetterdaten: Dienstag, 06.05.2014
Datum Zeit Temp. Aussen +5cm Feuchte Auss Luftdruck Regen Sonnenschein Regendauer UV Solar Windben
06.05.2014 00:00 13,5 C 11,7 C 68 % 1011,1 hPa 0,0 l/m 0 min 0 min 0,0 UV-I 0 W/m 10,3 km/h (2 Bft)
06.05.2014 00:02 13,5 C 11,7 C 68 % 1011,1 hPa 0,0 l/m 0 min 0 min 0,0 UV-I 0 W/m 7,7 km/h (2 Bft)
06.05.2014 00:06 13,4 C 11,7 C 69 % 1011,1 hPa 0,0 l/m 0 min 0 min 0,0 UV-I 0 W/m 12,9 km/h (3 Bft)
06.05.2014 00:08 13,4 C 11,7 C 69 % 1011,0 hPa 0,0 l/m 0 min 0 min 0,0 UV-I 0 W/m 10,3 km/h (2 Bft)
06.05.2014 00:10 13,3 C 11,7 C 69 % 1011,0 hPa 0,0 l/m 0 min 0 min 0,0 UV-I 0 W/m 10,3 km/h (2 Bft)
06.05.2014 00:12 13,3 C 11,7 C 69 % 1011,0 hPa 0,0 l/m 0 min 0 min 0,0 UV-I 0 W/m 10,3 km/h (2 Bft)
06.05.2014 00:14 13,3 C 11,1 C 69 % 1011,0 hPa 0,0 l/m 0 min 0 min 0,0 UV-I 0 W/m 10,3 km/h (2 Bft)
06.05.2014 00:16 13,3 C 11,1 C 69 % 1011,0 hPa 0,0 l/m 0 min 0 min 0,0 UV-I 0 W/m 2,6 km/h (1 Bft)
06.05.2014 00:18 13,2 C 11,1 C 70 % 1011,1 hPa 0,0 l/m 0 min 0 min 0,0 UV-I 0 W/m 10,3 km/h (2 Bft)
06.05.2014 00:20 13,2 C 11,1 C 70 % 1011,1 hPa 0,0 l/m 0 min 0 min 0,0 UV-I 0 W/m 7,7 km/h (2 Bft)
06.05.2014 00:22 13,2 C 11,1 C 70 % 1011,1 hPa 0,0 l/m 0 min 0 min 0,0 UV-I 0 W/m 0,0 km/h (0 Bft)
06.05.2014 00:24 13,1 C 11,1 C 70 % 1011,1 hPa 0,0 l/m 0 min 0 min 0,0 UV-I 0 W/m 7,7 km/h (2 Bft)
06.05.2014 00:26 13,1 C 11,1 C 70 % 1011,1 hPa 0,0 l/m 0 min 0 min 0,0 UV-I 0 W/m 10,3 km/h (2 Bft)
06.05.2014 00:28 13,0 C 11,1 C 70 % 1011,1 hPa 0,0 l/m 0 min 0 min 0,0 UV-I 0 W/m 2,6 km/h (1 Bft)
06.05.2014 00:30 13,0 C 11,1 C 70 % 1011,1 hPa 0,0 l/m 0 min 0 min 0,0 UV-I 0 W/m 10,3 km/h (2 Bft)
06.05.2014 00:32 13,0 C 11,1 C 70 % 1011,0 hPa 0,0 l/m 0 min 0 min 0,0 UV-I 0 W/m 12,9 km/h (3 Bft)
06.05.2014 00:34 13,0 C 11,1 C 70 % 1011,1 hPa 0,0 l/m 0 min 0 min 0,0 UV-I 0 W/m 10,3 km/h (2 Bft)
06.05.2014 00:36 13,0 C 11,1 C 71 % 1011,1 hPa 0,0 l/m 0 min 0 min 0,0 UV-I 0 W/m 12,9 km/h (3 Bft)
06.05.2014 00:38 12,9 C 11,1 C 71 % 1011,0 hPa 0,0 l/m 0 min 0 min 0,0 UV-I 0 W/m 7,7 km/h (2 Bft)
06.05.2014 00:40 12,9 C 11,1 C 71 % 1011,1 hPa 0,0 l/m 0 min 0 min 0,0 UV-I 0 W/m 2,6 km/h (1 Bft)
06.05.2014 00:42 12,9 C 11,1 C 71 % 1011,0 hPa 0,0 l/m 0 min 0 min 0,0 UV-I 0 W/m 15,4 km/h (3 Bft)
06.05.2014 00:44 12,9 C 11,1 C 71 % 1011,1 hPa 0,0 l/m 0 min 0 min 0,0 UV-I 0 W/m 7,7 km/h (2 Bft)
06.05.2014 00:46 12,9 C 11,1 C 71 % 1011,0 hPa 0,0 l/m 0 min 0 min 0,0 UV-I 0 W/m 12,9 km/h (3 Bft)
06.05.2014 00:48 12,9 C 11,1 C 71 % 1011,0 hPa 0,0 l/m 0 min 0 min 0,0 UV-I 0 W/m 10,3 km/h (2 Bft)
06.05.2014 00:50 12,9 C 11,1 C 71 % 1011,0 hPa 0,0 l/m 0 min 0 min 0,0 UV-I 0 W/m 10,3 km/h (2 Bft)
06.05.2014 00:52 12,9 C 11,1 C 71 % 1011,1 hPa 0,0 l/m 0 min 0 min 0,0 UV-I 0 W/m 12,9 km/h (3 Bft)
06.05.2014 00:54 12,9 C 11,1 C 71 % 1011,0 hPa 0,0 l/m 0 min 0 min 0,0 UV-I 0 W/m 12,9 km/h (3 Bft)
06.05.2014 00:56 12,9 C 11,1 C 71 % 1011,1 hPa 0,0 l/m 0 min 0 min 0,0 UV-I 0 W/m 5,1 km/h (1 Bft)
06.05.2014 00:58 12,9 C 11,1 C 71 % 1011,1 hPa 0,0 l/m 0 min 0 min 0,0 UV-I 0 W/m 7,7 km/h (2 Bft)
06.05.2014 01:00 12,9 C 11,1 C 71 % 1011,1 hPa 0,0 l/m 0 min 0 min 0,0 UV-I 0 W/m 7,7 km/h (2 Bft)
06.05.2014 01:02 12,9 C 11,1 C 71 % 1011,0 hPa 0,0 l/m 0 min 0 min 0,0 UV-I 0 W/m 10,3 km/h (2 Bft)
06.05.2014 01:06 12,9 C 11,1 C 71 % 1011,0 hPa 0,0 l/m 0 min 0 min 0,0 UV-I 0 W/m 10,3 km/h (2 Bft)
06.05.2014 01:08 12,9 C 11,1 C 71 % 1011,0 hPa 0,0 l/m 0 min 0 min 0,0 UV-I 0 W/m 12,9 km/h (3 Bft)
06.05.2014 01:10 12,8 C 11,1 C 71 % 1011,1 hPa 0,0 l/m 0 min 0 min 0,0 UV-I 0 W/m 10,3 km/h (2 Bft)
06.05.2014 01:12 12,8 C 11,1 C 72 % 1011,0 hPa 0,0 l/m 0 min 0 min 0,0 UV-I 0 W/m 10,3 km/h (2 Bft)
06.05.2014 01:14 12,8 C 11,1 C 72 % 1011,0 hPa 0,0 l/m 0 min 0 min 0,0 UV-I 0 W/m 7,7 km/h (2 Bft)
06.05.2014 01:16 12,8 C 11,1 C 72 % 1011,0 hPa 0,0 l/m 0 min 0 min 0,0 UV-I 0 W/m 10,3 km/h (2 Bft)
06.05.2014 01:18 12,8 C 11,1 C 72 % 1011,0 hPa 0,0 l/m 0 min 0 min 0,0 UV-I 0 W/m 10,3 km/h (2 Bft)
06.05.2014 01:20 12,8 C 11,1 C 72 % 1011,0 hPa 0,0 l/m 0 min 0 min 0,0 UV-I 0 W/m 10,3 km/h (2 Bft)
06.05.2014 01:22 12,8 C 11,1 C 72 % 1011,0 hPa 0,0 l/m 0 min 0 min 0,0 UV-I 0 W/m 10,3 km/h (2 Bft)
06.05.2014 01:24 12,7 C 11,1 C 72 % 1011,0 hPa 0,0 l/m 0 min 0 min 0,0 UV-I 0 W/m 7,7 km/h (2 Bft)
06.05.2014 01:26 12,7 C 11,1 C 72 % 1011,0 hPa 0,0 l/m 0 min 0 min 0,0 UV-I 0 W/m 10,3 km/h (2 Bft)
06.05.2014 01:28 12,7 C 11,1 C 72 % 1011,0 hPa 0,0 l/m 0 min 0 min 0,0 UV-I 0 W/m 5,1 km/h (1 Bft)
06.05.2014 01:30 12,6 C 11,1 C 72 % 1011,0 hPa 0,0 l/m 0 min 0 min 0,0 UV-I 0 W/m 0,0 km/h (0 Bft)
06.05.2014 01:32 12,6 C 11,1 C 73 % 1010,9 hPa 0,0 l/m 0 min 0 min 0,0 UV-I 0 W/m 7,7 km/h (2 Bft)
06.05.2014 01:34 12,6 C 11,1 C 73 % 1010,9 hPa 0,0 l/m 0 min 0 min 0,0 UV-I 0 W/m 0,0 km/h (0 Bft)
06.05.2014 01:36 12,5 C 11,1 C 73 % 1010,8 hPa 0,0 l/m 0 min 0 min 0,0 UV-I 0 W/m 0,0 km/h (0 Bft)
06.05.2014 01:38 12,4 C 10,6 C 73 % 1010,9 hPa 0,0 l/m 0 min 0 min 0,0 UV-I 0 W/m 5,1 km/h (1 Bft)
06.05.2014 01:40 12,4 C 10,6 C 73 % 1010,8 hPa 0,0 l/m 0 min 0 min 0,0 UV-I 0 W/m 2,6 km/h (1 Bft)
06.05.2014 01:42 12,4 C 10,6 C 73 % 1010,6 hPa 0,0 l/m 0 min 0 min 0,0 UV-I 0 W/m 12,9 km/h (3 Bft)
06.05.2014 01:44 12,4 C 10,6 C 73 % 1010,6 hPa 0,0 l/m 0 min 0 min 0,0 UV-I 0 W/m 0,0 km/h (0 Bft)
06.05.2014 01:46 12,4 C 10,6 C 73 % 1010,6 hPa 0,0 l/m 0 min 0 min 0,0 UV-I 0 W/m 0,0 km/h (0 Bft)
06.05.2014 01:48 12,4 C 10,6 C 73 % 1010,6 hPa 0,0 l/m 0 min 0 min 0,0 UV-I 0 W/m 0,0 km/h (0 Bft)
06.05.2014 01:50 12,3 C 10,6 C 73 % 1010,7 hPa 0,0 l/m 0 min 0 min 0,0 UV-I 0 W/m 2,6 km/h (1 Bft)
06.05.2014 01:52 12,3 C 10,6 C 74 % 1010,6 hPa 0,0 l/m 0 min 0 min 0,0 UV-I 0 W/m 0,0 km/h (0 Bft)
06.05.2014 01:54 12,3 C 10,6 C 74 % 1010,6 hPa 0,0 l/m 0 min 0 min 0,0 UV-I 0 W/m 2,6 km/h (1 Bft)
06.05.2014 01:56 12,2 C 10,6 C 74 % 1010,6 hPa 0,0 l/m 0 min 0 min 0,0 UV-I 0 W/m 5,1 km/h (1 Bft)
06.05.2014 01:58 12,2 C 10,6 C 74 % 1010,5 hPa 0,0 l/m 0 min 0 min 0,0 UV-I 0 W/m 2,6 km/h (1 Bft)
06.05.2014 02:00 12,2 C 10,6 C 74 % 1010,5 hPa 0,0 l/m 0 min 0 min 0,0 UV-I 0 W/m 7,7 km/h (2 Bft)
06.05.2014 02:02 12,2 C 10,6 C 74 % 1010,5 hPa 0,0 l/m 0 min 0 min 0,0 UV-I 0 W/m 5,1 km/h (1 Bft)
06.05.2014 02:06 12,2 C 10,6 C 74 % 1010,4 hPa 0,0 l/m 0 min 0 min 0,0 UV-I 0 W/m 2,6 km/h (1 Bft)
06.05.2014 02:08 12,2 C 10,6 C 74 % 1010,4 hPa 0,0 l/m 0 min 0 min 0,0 UV-I 0 W/m 0,0 km/h (0 Bft)
06.05.2014 02:10 12,2 C 10,6 C 74 % 1010,5 hPa 0,0 l/m 0 min 0 min 0,0 UV-I 0 W/m 0,0 km/h (0 Bft)
06.05.2014 02:12 12,2 C 10,6 C 74 % 1010,4 hPa 0,0 l/m 0 min 0 min 0,0 UV-I 0 W/m 2,6 km/h (1 Bft)
06.05.2014 02:14 12,2 C 10,6 C 74 % 1010,4 hPa 0,0 l/m 0 min 0 min 0,0 UV-I 0 W/m 0,0 km/h (0 Bft)
06.05.2014 02:16 12,2 C 10,6 C 74 % 1010,4 hPa 0,0 l/m 0 min 0 min 0,0 UV-I 0 W/m 7,7 km/h (2 Bft)
06.05.2014 02:18 12,2 C 10,6 C 74 % 1010,3 hPa 0,0 l/m 0 min 0 min 0,0 UV-I 0 W/m 7,7 km/h (2 Bft)
06.05.2014 02:20 12,2 C 10,6 C 74 % 1010,2 hPa 0,0 l/m 0 min 0 min 0,0 UV-I 0 W/m 10,3 km/h (2 Bft)
06.05.2014 02:22 12,2 C 10,6 C 74 % 1010,2 hPa 0,0 l/m 0 min 0 min 0,0 UV-I 0 W/m 7,7 km/h (2 Bft)
06.05.2014 02:24 12,2 C 10,6 C 74 % 1010,2 hPa 0,0 l/m 0 min 0 min 0,0 UV-I 0 W/m 7,7 km/h (2 Bft)
06.05.2014 02:26 12,2 C 10,6 C 74 % 1010,2 hPa 0,0 l/m 0 min 0 min 0,0 UV-I 0 W/m 12,9 km/h (3 Bft)
06.05.2014 02:28 12,2 C 10,6 C 74 % 1010,2 hPa 0,0 l/m 0 min 0 min 0,0 UV-I 0 W/m 12,9 km/h (3 Bft)
06.05.2014 02:30 12,2 C 10,6 C 74 % 1010,2 hPa 0,0 l/m 0 min 0 min 0,0 UV-I 0 W/m 10,3 km/h (2 Bft)
06.05.2014 02:32 12,2 C 10,6 C 74 % 1010,2 hPa 0,0 l/m 0 min 0 min 0,0 UV-I 0 W/m 2,6 km/h (1 Bft)
06.05.2014 02:34 12,2 C 10,6 C 74 % 1010,2 hPa 0,0 l/m 0 min 0 min 0,0 UV-I 0 W/m 7,7 km/h (2 Bft)
06.05.2014 02:36 12,2 C 10,6 C 74 % 1010,2 hPa 0,0 l/m 0 min 0 min 0,0 UV-I 0 W/m 7,7 km/h (2 Bft)
06.05.2014 02:38 12,2 C 10,6 C 74 % 1010,2 hPa 0,0 l/m 0 min 0 min 0,0 UV-I 0 W/m 2,6 km/h (1 Bft)
06.05.2014 02:40 12,2 C 10,6 C 74 % 1010,2 hPa 0,0 l/m 0 min 0 min 0,0 UV-I 0 W/m 2,6 km/h (1 Bft)
06.05.2014 02:42 12,2 C 10,6 C 74 % 1010,2 hPa 0,0 l/m 0 min 0 min 0,0 UV-I 0 W/m 7,7 km/h (2 Bft)
06.05.2014 02:44 12,2 C 10,6 C 74 % 1010,2 hPa 0,0 l/m 0 min 0 min 0,0 UV-I 0 W/m 2,6 km/h (1 Bft)
06.05.2014 02:46 12,2 C 10,6 C 74 % 1010,1 hPa 0,0 l/m 0 min 0 min 0,0 UV-I 0 W/m 10,3 km/h (2 Bft)
06.05.2014 02:48 12,2 C 10,6 C 74 % 1010,1 hPa 0,0 l/m 0 min 0 min 0,0 UV-I 0 W/m 10,3 km/h (2 Bft)
06.05.2014 02:50 12,2 C 10,6 C 74 % 1010,1 hPa 0,0 l/m 0 min 0 min 0,0 UV-I 0 W/m 7,7 km/h (2 Bft)
06.05.2014 02:52 12,2 C 10,6 C 74 % 1010,1 hPa 0,0 l/m 0 min 0 min 0,0 UV-I 0 W/m 12,9 km/h (3 Bft)
06.05.2014 02:54 12,2 C 10,6 C 74 % 1010,1 hPa 0,0 l/m 0 min 0 min 0,0 UV-I 0 W/m 10,3 km/h (2 Bft)
06.05.2014 02:56 12,2 C 10,6 C 74 % 1010,1 hPa 0,0 l/m 0 min 0 min 0,0 UV-I 0 W/m 7,7 km/h (2 Bft)
06.05.2014 02:58 12,2 C 10,6 C 74 % 1010,0 hPa 0,0 l/m 0 min 0 min 0,0 UV-I 0 W/m 10,3 km/h (2 Bft)
06.05.2014 03:00 12,1 C 10,6 C 74 % 1010,1 hPa 0,0 l/m 0 min 0 min 0,0 UV-I 0 W/m 12,9 km/h (3 Bft)
06.05.2014 03:02 12,1 C 10,6 C 74 % 1010,0 hPa 0,0 l/m 0 min 0 min 0,0 UV-I 0 W/m 12,9 km/h (3 Bft)
06.05.2014 03:06 12,1 C 10,6 C 74 % 1010,0 hPa 0,0 l/m 0 min 0 min 0,0 UV-I 0 W/m 12,9 km/h (3 Bft)
06.05.2014 03:08 12,1 C 10,6 C 73 % 1010,0 hPa 0,0 l/m 0 min 0 min 0,0 UV-I 0 W/m 5,1 km/h (1 Bft)
06.05.2014 03:10 12,0 C 10,6 C 73 % 1009,9 hPa 0,0 l/m 0 min 0 min 0,0 UV-I 0 W/m 12,9 km/h (3 Bft)
06.05.2014 03:12 12,0 C 10,6 C 73 % 1009,9 hPa 0,0 l/m 0 min 0 min 0,0 UV-I 0 W/m 12,9 km/h (3 Bft)
06.05.2014 03:14 12,0 C 10,6 C 73 % 1009,9 hPa 0,0 l/m 0 min 0 min 0,0 UV-I 0 W/m 15,4 km/h (3 Bft)
06.05.2014 03:16 12,0 C 10,6 C 73 % 1009,9 hPa 0,0 l/m 0 min 0 min 0,0 UV-I 0 W/m 12,9 km/h (3 Bft)
06.05.2014 03:18 12,0 C 10,6 C 73 % 1009,9 hPa 0,0 l/m 0 min 0 min 0,0 UV-I 0 W/m 15,4 km/h (3 Bft)
06.05.2014 03:20 12,1 C 10,6 C 73 % 1009,9 hPa 0,0 l/m 0 min 0 min 0,0 UV-I 0 W/m 12,9 km/h (3 Bft)
06.05.2014 03:22 12,1 C 10,6 C 73 % 1009,8 hPa 0,0 l/m 0 min 0 min 0,0 UV-I 0 W/m 7,7 km/h (2 Bft)
06.05.2014 03:24 12,1 C 10,6 C 73 % 1009,8 hPa 0,0 l/m 0 min 0 min 0,0 UV-I 0 W/m 7,7 km/h (2 Bft)
06.05.2014 03:26 12,1 C 10,6 C 73 % 1009,8 hPa 0,0 l/m 0 min 0 min 0,0 UV-I 0 W/m 10,3 km/h (2 Bft)
06.05.2014 03:28 12,0 C 10,6 C 73 % 1009,8 hPa 0,0 l/m 0 min 0 min 0,0 UV-I 0 W/m 7,7 km/h (2 Bft)
06.05.2014 03:30 12,0 C 10,6 C 73 % 1009,7 hPa 0,0 l/m 0 min 0 min 0,0 UV-I 0 W/m 12,9 km/h (3 Bft)
06.05.2014 03:32 12,0 C 10,6 C 72 % 1009,7 hPa 0,0 l/m 0 min 0 min 0,0 UV-I 0 W/m 7,7 km/h (2 Bft)
06.05.2014 03:34 12,0 C 10,6 C 72 % 1009,7 hPa 0,0 l/m 0 min 0 min 0,0 UV-I 0 W/m 18,0 km/h (3 Bft)
06.05.2014 03:36 12,0 C 10,6 C 72 % 1009,7 hPa 0,0 l/m 0 min 0 min 0,0 UV-I 0 W/m 7,7 km/h (2 Bft)
06.05.2014 03:38 12,0 C 10,6 C 72 % 1009,7 hPa 0,0 l/m 0 min 0 min 0,0 UV-I 0 W/m 10,3 km/h (2 Bft)
06.05.2014 03:40 12,0 C 10,6 C 72 % 1009,7 hPa 0,0 l/m 0 min 0 min 0,0 UV-I 0 W/m 15,4 km/h (3 Bft)
06.05.2014 03:42 12,0 C 10,6 C 72 % 1009,6 hPa 0,0 l/m 0 min 0 min 0,0 UV-I 0 W/m 18,0 km/h (3 Bft)
06.05.2014 03:44 12,0 C 10,6 C 72 % 1009,6 hPa 0,0 l/m 0 min 0 min 0,0 UV-I 0 W/m 7,7 km/h (2 Bft)
06.05.2014 03:46 12,0 C 10,6 C 72 % 1009,5 hPa 0,0 l/m 0 min 0 min 0,0 UV-I 0 W/m 10,3 km/h (2 Bft)
06.05.2014 03:48 12,0 C 10,6 C 72 % 1009,5 hPa 0,0 l/m 0 min 0 min 0,0 UV-I 0 W/m 10,3 km/h (2 Bft)
06.05.2014 03:50 12,0 C 10,6 C 72 % 1009,5 hPa 0,0 l/m 0 min 0 min 0,0 UV-I 0 W/m 10,3 km/h (2 Bft)
06.05.2014 03:52 11,9 C 10,6 C 72 % 1009,5 hPa 0,0 l/m 0 min 0 min 0,0 UV-I 0 W/m 7,7 km/h (2 Bft)
06.05.2014 03:54 11,9 C 10,6 C 72 % 1009,5 hPa 0,0 l/m 0 min 0 min 0,0 UV-I 0 W/m 12,9 km/h (3 Bft)
06.05.2014 03:56 11,9 C 10,6 C 72 % 1009,4 hPa 0,0 l/m 0 min 0 min 0,0 UV-I 0 W/m 10,3 km/h (2 Bft)
06.05.2014 03:58 11,9 C 10,6 C 72 % 1009,4 hPa 0,0 l/m 0 min 0 min 0,0 UV-I 0 W/m 12,9 km/h (3 Bft)
06.05.2014 04:00 11,9 C 10,0 C 72 % 1009,4 hPa 0,0 l/m 0 min 0 min 0,0 UV-I 0 W/m 2,6 km/h (1 Bft)
06.05.2014 04:02 11,8 C 10,0 C 72 % 1009,3 hPa 0,0 l/m 0 min 0 min 0,0 UV-I 0 W/m 10,3 km/h (2 Bft)
06.05.2014 04:06 11,8 C 10,0 C 72 % 1009,2 hPa 0,0 l/m 0 min 0 min 0,0 UV-I 0 W/m 10,3 km/h (2 Bft)
06.05.2014 04:08 11,7 C 10,0 C 73 % 1009,2 hPa 0,0 l/m 0 min 0 min 0,0 UV-I 0 W/m 10,3 km/h (2 Bft)
06.05.2014 04:10 11,7 C 10,0 C 73 % 1009,2 hPa 0,0 l/m 0 min 0 min 0,0 UV-I 0 W/m 10,3 km/h (2 Bft)
06.05.2014 04:12 11,7 C 10,0 C 73 % 1009,2 hPa 0,0 l/m 0 min 0 min 0,0 UV-I 0 W/m 10,3 km/h (2 Bft)
06.05.2014 04:14 11,7 C 10,0 C 73 % 1009,1 hPa 0,0 l/m 0 min 0 min 0,0 UV-I 0 W/m 10,3 km/h (2 Bft)
06.05.2014 04:16 11,6 C 10,0 C 73 % 1009,1 hPa 0,0 l/m 0 min 0 min 0,0 UV-I 0 W/m 7,7 km/h (2 Bft)
06.05.2014 04:18 11,6 C 10,0 C 73 % 1009,0 hPa 0,0 l/m 0 min 0 min 0,0 UV-I 0 W/m 12,9 km/h (3 Bft)
06.05.2014 04:20 11,6 C 10,0 C 73 % 1009,0 hPa 0,0 l/m 0 min 0 min 0,0 UV-I 0 W/m 12,9 km/h (3 Bft)
06.05.2014 04:22 11,6 C 10,0 C 73 % 1009,0 hPa 0,0 l/m 0 min 0 min 0,0 UV-I 0 W/m 15,4 km/h (3 Bft)
06.05.2014 04:24 11,6 C 10,0 C 73 % 1009,0 hPa 0,0 l/m 0 min 0 min 0,0 UV-I 0 W/m 18,0 km/h (3 Bft)
06.05.2014 04:26 11,6 C 10,0 C 73 % 1009,0 hPa 0,0 l/m 0 min 0 min 0,0 UV-I 0 W/m 10,3 km/h (2 Bft)
06.05.2014 04:28 11,5 C 10,0 C 73 % 1008,9 hPa 0,0 l/m 0 min 0 min 0,0 UV-I 0 W/m 10,3 km/h (2 Bft)
06.05.2014 04:30 11,5 C 10,0 C 73 % 1008,9 hPa 0,0 l/m 0 min 0 min 0,0 UV-I 0 W/m 7,7 km/h (2 Bft)
06.05.2014 04:32 11,4 C 10,0 C 73 % 1008,9 hPa 0,0 l/m 0 min 0 min 0,0 UV-I 0 W/m 5,1 km/h (1 Bft)
06.05.2014 04:34 11,4 C 10,0 C 74 % 1008,9 hPa 0,0 l/m 0 min 0 min 0,0 UV-I 0 W/m 5,1 km/h (1 Bft)
06.05.2014 04:36 11,3 C 10,0 C 74 % 1008,9 hPa 0,0 l/m 0 min 0 min 0,0 UV-I 0 W/m 7,7 km/h (2 Bft)
06.05.2014 04:38 11,3 C 10,0 C 74 % 1008,9 hPa 0,0 l/m 0 min 0 min 0,0 UV-I 0 W/m 12,9 km/h (3 Bft)
06.05.2014 04:40 11,3 C 9,4 C 74 % 1008,9 hPa 0,0 l/m 0 min 0 min 0,0 UV-I 0 W/m 10,3 km/h (2 Bft)
06.05.2014 04:42 11,2 C 9,4 C 74 % 1008,9 hPa 0,0 l/m 0 min 0 min 0,0 UV-I 0 W/m 10,3 km/h (2 Bft)
06.05.2014 04:44 11,2 C 9,4 C 74 % 1008,9 hPa 0,0 l/m 0 min 0 min 0,0 UV-I 0 W/m 7,7 km/h (2 Bft)
06.05.2014 04:46 11,2 C 9,4 C 74 % 1008,8 hPa 0,0 l/m 0 min 0 min 0,0 UV-I 0 W/m 12,9 km/h (3 Bft)
06.05.2014 04:48 11,1 C 9,4 C 74 % 1008,9 hPa 0,0 l/m 0 min 0 min 0,0 UV-I 0 W/m 10,3 km/h (2 Bft)
06.05.2014 04:50 11,1 C 9,4 C 75 % 1008,8 hPa 0,0 l/m 0 min 0 min 0,0 UV-I 0 W/m 10,3 km/h (2 Bft)
06.05.2014 04:52 11,1 C 9,4 C 75 % 1008,9 hPa 0,0 l/m 0 min 0 min 0,0 UV-I 0 W/m 12,9 km/h (3 Bft)
06.05.2014 04:54 11,0 C 9,4 C 75 % 1008,9 hPa 0,0 l/m 0 min 0 min 0,0 UV-I 0 W/m 7,7 km/h (2 Bft)
06.05.2014 04:56 11,0 C 9,4 C 75 % 1008,8 hPa 0,0 l/m 0 min 0 min 0,0 UV-I 0 W/m 10,3 km/h (2 Bft)
06.05.2014 04:58 11,0 C 9,4 C 75 % 1008,8 hPa 0,0 l/m 0 min 0 min 0,0 UV-I 0 W/m 7,7 km/h (2 Bft)
06.05.2014 05:00 11,0 C 9,4 C 75 % 1008,8 hPa 0,0 l/m 0 min 0 min 0,0 UV-I 0 W/m 7,7 km/h (2 Bft)
06.05.2014 05:02 11,0 C 9,4 C 75 % 1008,7 hPa 0,0 l/m 0 min 0 min 0,0 UV-I 0 W/m 7,7 km/h (2 Bft)
06.05.2014 05:06 11,0 C 9,4 C 74 % 1008,6 hPa 0,0 l/m 0 min 0 min 0,0 UV-I 0 W/m 18,0 km/h (3 Bft)
06.05.2014 05:08 11,0 C 9,4 C 74 % 1008,6 hPa 0,0 l/m 0 min 0 min 0,0 UV-I 0 W/m 12,9 km/h (3 Bft)
06.05.2014 05:10 11,0 C 9,4 C 74 % 1008,6 hPa 0,0 l/m 0 min 0 min 0,0 UV-I 0 W/m 10,3 km/h (2 Bft)
06.05.2014 05:12 11,0 C 9,4 C 74 % 1008,6 hPa 0,0 l/m 0 min 0 min 0,0 UV-I 0 W/m 15,4 km/h (3 Bft)
06.05.2014 05:14 11,0 C 9,4 C 74 % 1008,6 hPa 0,0 l/m 0 min 0 min 0,0 UV-I 0 W/m 7,7 km/h (2 Bft)
06.05.2014 05:16 11,0 C 9,4 C 74 % 1008,6 hPa 0,0 l/m 0 min 0 min 0,0 UV-I 0 W/m 15,4 km/h (3 Bft)
06.05.2014 05:18 11,0 C 9,4 C 74 % 1008,6 hPa 0,0 l/m 0 min 0 min 0,0 UV-I 0 W/m 12,9 km/h (3 Bft)
06.05.2014 05:20 10,9 C 9,4 C 74 % 1008,6 hPa 0,0 l/m 0 min 0 min 0,0 UV-I 0 W/m 15,4 km/h (3 Bft)
06.05.2014 05:22 10,9 C 9,4 C 74 % 1008,6 hPa 0,0 l/m 0 min 0 min 0,0 UV-I 0 W/m 10,3 km/h (2 Bft)
06.05.2014 05:24 10,9 C 9,4 C 74 % 1008,6 hPa 0,0 l/m 0 min 0 min 0,0 UV-I 0 W/m 12,9 km/h (3 Bft)
06.05.2014 05:26 10,9 C 9,4 C 74 % 1008,5 hPa 0,0 l/m 0 min 0 min 0,0 UV-I 0 W/m 5,1 km/h (1 Bft)
06.05.2014 05:28 10,9 C 9,4 C 74 % 1008,5 hPa 0,0 l/m 0 min 0 min 0,0 UV-I 0 W/m 7,7 km/h (2 Bft)
06.05.2014 05:30 10,9 C 9,4 C 74 % 1008,6 hPa 0,0 l/m 0 min 0 min 0,0 UV-I 0 W/m 18,0 km/h (3 Bft)
06.05.2014 05:32 10,9 C 9,4 C 74 % 1008,5 hPa 0,0 l/m 0 min 0 min 0,0 UV-I 0 W/m 10,3 km/h (2 Bft)
06.05.2014 05:34 10,9 C 9,4 C 74 % 1008,5 hPa 0,0 l/m 0 min 0 min 0,0 UV-I 0 W/m 7,7 km/h (2 Bft)
06.05.2014 05:36 10,9 C 9,4 C 74 % 1008,5 hPa 0,0 l/m 0 min 0 min 0,0 UV-I 0 W/m 12,9 km/h (3 Bft)
06.05.2014 05:38 10,8 C 9,4 C 74 % 1008,5 hPa 0,0 l/m 0 min 0 min 0,0 UV-I 0 W/m 12,9 km/h (3 Bft)
06.05.2014 05:40 10,8 C 9,4 C 75 % 1008,5 hPa 0,0 l/m 0 min 0 min 0,0 UV-I 0 W/m 10,3 km/h (2 Bft)
06.05.2014 05:42 10,8 C 9,4 C 75 % 1008,4 hPa 0,0 l/m 0 min 0 min 0,0 UV-I 0 W/m 10,3 km/h (2 Bft)
06.05.2014 05:44 10,8 C 9,4 C 75 % 1008,4 hPa 0,0 l/m 0 min 0 min 0,0 UV-I 0 W/m 12,9 km/h (3 Bft)
06.05.2014 05:46 10,8 C 9,4 C 75 % 1008,3 hPa 0,0 l/m 0 min 0 min 0,0 UV-I 0 W/m 7,7 km/h (2 Bft)
06.05.2014 05:48 10,8 C 9,4 C 75 % 1008,4 hPa 0,0 l/m 0 min 0 min 0,0 UV-I 0 W/m 15,4 km/h (3 Bft)
06.05.2014 05:50 10,8 C 9,4 C 75 % 1008,4 hPa 0,0 l/m 0 min 0 min 0,0 UV-I 0 W/m 10,3 km/h (2 Bft)
06.05.2014 05:52 10,8 C 9,4 C 75 % 1008,3 hPa 0,0 l/m 0 min 0 min 0,0 UV-I 0 W/m 12,9 km/h (3 Bft)
06.05.2014 05:54 10,8 C 9,4 C 75 % 1008,2 hPa 0,0 l/m 0 min 0 min 0,0 UV-I 0 W/m 12,9 km/h (3 Bft)
06.05.2014 05:56 10,8 C 9,4 C 75 % 1008,2 hPa 0,0 l/m 0 min 0 min 0,0 UV-I 0 W/m 7,7 km/h (2 Bft)
06.05.2014 05:58 10,8 C 9,4 C 75 % 1008,2 hPa 0,0 l/m 0 min 0 min 0,0 UV-I 0 W/m 2,6 km/h (1 Bft)
06.05.2014 06:00 10,8 C 9,4 C 75 % 1008,2 hPa 0,0 l/m 0 min 0 min 0,0 UV-I 0 W/m 12,9 km/h (3 Bft)
06.05.2014 06:02 10,8 C 9,4 C 75 % 1008,2 hPa 0,0 l/m 0 min 0 min 0,0 UV-I 0 W/m 12,9 km/h (3 Bft)
06.05.2014 06:06 10,8 C 9,4 C 75 % 1008,2 hPa 0,0 l/m 0 min 0 min 0,0 UV-I 5 W/m 12,9 km/h (3 Bft)
06.05.2014 06:08 10,8 C 9,4 C 75 % 1008,2 hPa 0,0 l/m 0 min 0 min 0,0 UV-I 7 W/m 12,9 km/h (3 Bft)
06.05.2014 06:10 10,8 C 9,4 C 75 % 1008,1 hPa 0,0 l/m 0 min 0 min 0,0 UV-I 7 W/m 15,4 km/h (3 Bft)
06.05.2014 06:12 10,8 C 9,4 C 75 % 1008,1 hPa 0,0 l/m 0 min 0 min 0,0 UV-I 9 W/m 5,1 km/h (1 Bft)
06.05.2014 06:14 10,8 C 9,4 C 75 % 1008,1 hPa 0,0 l/m 0 min 0 min 0,0 UV-I 11 W/m 10,3 km/h (2 Bft)
06.05.2014 06:16 10,8 C 9,4 C 75 % 1008,0 hPa 0,0 l/m 0 min 0 min 0,0 UV-I 12 W/m 12,9 km/h (3 Bft)
06.05.2014 06:18 10,8 C 9,4 C 75 % 1007,9 hPa 0,0 l/m 0 min 0 min 0,0 UV-I 14 W/m 12,9 km/h (3 Bft)
06.05.2014 06:20 10,8 C 9,4 C 75 % 1007,9 hPa 0,0 l/m 0 min 0 min 0,0 UV-I 16 W/m 12,9 km/h (3 Bft)
06.05.2014 06:22 10,8 C 9,4 C 75 % 1007,9 hPa 0,0 l/m 0 min 0 min 0,0 UV-I 18 W/m 15,4 km/h (3 Bft)
06.05.2014 06:24 10,8 C 9,4 C 75 % 1007,9 hPa 0,0 l/m 0 min 0 min 0,0 UV-I 21 W/m 12,9 km/h (3 Bft)
06.05.2014 06:26 10,8 C 9,4 C 75 % 1007,8 hPa 0,0 l/m 0 min 0 min 0,0 UV-I 23 W/m 10,3 km/h (2 Bft)
06.05.2014 06:28 10,8 C 9,4 C 75 % 1007,8 hPa 0,0 l/m 0 min 0 min 0,0 UV-I 25 W/m 10,3 km/h (2 Bft)
06.05.2014 06:30 10,9 C 9,4 C 75 % 1007,9 hPa 0,0 l/m 0 min 0 min 0,0 UV-I 28 W/m 10,3 km/h (2 Bft)
06.05.2014 06:32 10,9 C 9,4 C 75 % 1007,8 hPa 0,0 l/m 0 min 0 min 0,0 UV-I 30 W/m 18,0 km/h (3 Bft)
06.05.2014 06:34 10,9 C 10,0 C 75 % 1007,9 hPa 0,0 l/m 0 min 0 min 0,0 UV-I 32 W/m 18,0 km/h (3 Bft)
06.05.2014 06:36 10,9 C 10,0 C 75 % 1007,9 hPa 0,0 l/m 0 min 0 min 0,0 UV-I 33 W/m 15,4 km/h (3 Bft)
06.05.2014 06:38 10,9 C 10,0 C 75 % 1007,9 hPa 0,0 l/m 0 min 0 min 0,0 UV-I 33 W/m 7,7 km/h (2 Bft)
06.05.2014 06:40 10,9 C 10,0 C 75 % 1007,8 hPa 0,0 l/m 0 min 0 min 0,0 UV-I 33 W/m 18,0 km/h (3 Bft)
06.05.2014 06:42 11,0 C 10,0 C 75 % 1007,9 hPa 0,0 l/m 0 min 0 min 0,0 UV-I 32 W/m 15,4 km/h (3 Bft)
06.05.2014 06:44 11,0 C 10,0 C 75 % 1007,9 hPa 0,0 l/m 0 min 0 min 0,0 UV-I 30 W/m 10,3 km/h (2 Bft)
06.05.2014 06:46 11,0 C 10,0 C 75 % 1007,9 hPa 0,0 l/m 0 min 0 min 0,0 UV-I 30 W/m 15,4 km/h (3 Bft)
06.05.2014 06:48 11,0 C 10,0 C 75 % 1007,8 hPa 0,0 l/m 0 min 0 min 0,0 UV-I 30 W/m 12,9 km/h (3 Bft)
06.05.2014 06:50 11,1 C 10,0 C 74 % 1007,8 hPa 0,0 l/m 0 min 0 min 0,0 UV-I 30 W/m 10,3 km/h (2 Bft)
06.05.2014 06:52 11,1 C 10,0 C 75 % 1007,9 hPa 0,0 l/m 0 min 0 min 0,0 UV-I 32 W/m 7,7 km/h (2 Bft)
06.05.2014 06:54 11,1 C 10,0 C 74 % 1007,8 hPa 0,0 l/m 0 min 0 min 0,0 UV-I 33 W/m 7,7 km/h (2 Bft)
06.05.2014 06:56 11,1 C 10,0 C 74 % 1007,8 hPa 0,0 l/m 0 min 0 min 0,0 UV-I 35 W/m 12,9 km/h (3 Bft)
06.05.2014 06:58 11,2 C 10,0 C 74 % 1007,7 hPa 0,0 l/m 0 min 0 min 0,0 UV-I 35 W/m 5,1 km/h (1 Bft)
06.05.2014 07:00 11,2 C 10,0 C 74 % 1007,6 hPa 0,0 l/m 0 min 0 min 0,0 UV-I 39 W/m 5,1 km/h (1 Bft)
06.05.2014 07:02 11,2 C 10,0 C 74 % 1007,8 hPa 0,0 l/m 0 min 0 min 0,0 UV-I 42 W/m 10,3 km/h (2 Bft)
06.05.2014 07:06 11,2 C 10,0 C 74 % 1007,9 hPa 0,0 l/m 0 min 0 min 0,0 UV-I 56 W/m 15,4 km/h (3 Bft)
06.05.2014 07:08 11,3 C 10,0 C 74 % 1007,8 hPa 0,0 l/m 0 min 0 min 0,0 UV-I 62 W/m 12,9 km/h (3 Bft)
06.05.2014 07:10 11,3 C 10,6 C 74 % 1007,9 hPa 0,0 l/m 0 min 0 min 0,0 UV-I 65 W/m 7,7 km/h (2 Bft)
06.05.2014 07:12 11,3 C 10,6 C 74 % 1007,9 hPa 0,0 l/m 0 min 0 min 0,0 UV-I 67 W/m 10,3 km/h (2 Bft)
06.05.2014 07:14 11,4 C 10,6 C 74 % 1007,9 hPa 0,0 l/m 0 min 0 min 0,0 UV-I 65 W/m 10,3 km/h (2 Bft)
06.05.2014 07:16 11,4 C 10,6 C 74 % 1007,8 hPa 0,0 l/m 0 min 0 min 0,0 UV-I 63 W/m 10,3 km/h (2 Bft)
06.05.2014 07:18 11,4 C 10,6 C 74 % 1007,8 hPa 0,0 l/m 0 min 0 min 0,0 UV-I 63 W/m 7,7 km/h (2 Bft)
06.05.2014 07:20 11,5 C 10,6 C 74 % 1007,9 hPa 0,0 l/m 0 min 0 min 0,0 UV-I 62 W/m 10,3 km/h (2 Bft)
06.05.2014 07:22 11,5 C 10,6 C 73 % 1007,9 hPa 0,0 l/m 0 min 0 min 0,0 UV-I 63 W/m 15,4 km/h (3 Bft)
06.05.2014 07:24 11,6 C 10,6 C 73 % 1007,9 hPa 0,0 l/m 0 min 0 min 0,0 UV-I 65 W/m 12,9 km/h (3 Bft)
06.05.2014 07:26 11,6 C 10,6 C 73 % 1007,9 hPa 0,0 l/m 0 min 0 min 0,0 UV-I 67 W/m 12,9 km/h (3 Bft)
06.05.2014 07:28 11,6 C 10,6 C 73 % 1007,9 hPa 0,0 l/m 0 min 0 min 0,0 UV-I 70 W/m 18,0 km/h (3 Bft)
06.05.2014 07:30 11,7 C 10,6 C 73 % 1007,9 hPa 0,0 l/m 0 min 0 min 0,0 UV-I 79 W/m 10,3 km/h (2 Bft)
06.05.2014 07:32 11,7 C 10,6 C 73 % 1007,8 hPa 0,0 l/m 0 min 0 min 0,0 UV-I 86 W/m 2,6 km/h (1 Bft)
06.05.2014 07:34 11,7 C 10,6 C 73 % 1007,9 hPa 0,0 l/m 0 min 0 min 0,0 UV-I 93 W/m 12,9 km/h (3 Bft)
06.05.2014 07:36 11,8 C 10,6 C 73 % 1007,9 hPa 0,0 l/m 0 min 0 min 0,0 UV-I 91 W/m 18,0 km/h (3 Bft)
06.05.2014 07:38 11,8 C 11,1 C 73 % 1007,9 hPa 0,0 l/m 0 min 0 min 0,0 UV-I 84 W/m 12,9 km/h (3 Bft)
06.05.2014 07:40 11,8 C 11,1 C 73 % 1007,9 hPa 0,0 l/m 0 min 0 min 0,0 UV-I 74 W/m 12,9 km/h (3 Bft)
06.05.2014 07:42 11,8 C 11,1 C 73 % 1008,0 hPa 0,0 l/m 0 min 0 min 0,0 UV-I 70 W/m 12,9 km/h (3 Bft)
06.05.2014 07:44 11,9 C 11,1 C 73 % 1007,9 hPa 0,0 l/m 0 min 0 min 0,0 UV-I 70 W/m 10,3 km/h (2 Bft)
06.05.2014 07:46 11,8 C 11,1 C 73 % 1007,9 hPa 0,0 l/m 0 min 0 min 0,0 UV-I 76 W/m 15,4 km/h (3 Bft)
06.05.2014 07:48 11,9 C 11,1 C 73 % 1007,8 hPa 0,0 l/m 0 min 0 min 0,0 UV-I 83 W/m 18,0 km/h (3 Bft)
06.05.2014 07:50 11,9 C 11,1 C 73 % 1007,8 hPa 0,0 l/m 0 min 0 min 0,0 UV-I 88 W/m 20,6 km/h (4 Bft)
06.05.2014 07:52 11,9 C 11,1 C 73 % 1007,7 hPa 0,0 l/m 0 min 0 min 0,0 UV-I 98 W/m 18,0 km/h (3 Bft)
06.05.2014 07:54 11,9 C 11,1 C 73 % 1007,8 hPa 0,0 l/m 0 min 0 min 0,0 UV-I 105 W/m 15,4 km/h (3 Bft)
06.05.2014 07:56 11,9 C 11,1 C 73 % 1007,8 hPa 0,0 l/m 0 min 0 min 0,0 UV-I 116 W/m 12,9 km/h (3 Bft)
06.05.2014 07:58 12,0 C 11,1 C 73 % 1007,8 hPa 0,0 l/m 0 min 0 min 0,0 UV-I 128 W/m 12,9 km/h (3 Bft)
06.05.2014 08:00 12,0 C 11,1 C 73 % 1007,8 hPa 0,0 l/m 0 min 0 min 0,0 UV-I 135 W/m 18,0 km/h (3 Bft)
06.05.2014 08:02 12,1 C 11,7 C 73 % 1007,8 hPa 0,0 l/m 0 min 0 min 0,0 UV-I 141 W/m 10,3 km/h (2 Bft)
06.05.2014 08:06 12,2 C 11,7 C 73 % 1007,9 hPa 0,0 l/m 0 min 0 min 0,0 UV-I 146 W/m 12,9 km/h (3 Bft)
06.05.2014 08:08 12,2 C 11,7 C 74 % 1007,9 hPa 0,0 l/m 0 min 0 min 0,0 UV-I 142 W/m 10,3 km/h (2 Bft)
06.05.2014 08:10 12,2 C 11,7 C 73 % 1007,8 hPa 0,0 l/m 0 min 0 min 0,0 UV-I 137 W/m 15,4 km/h (3 Bft)
06.05.2014 08:12 12,3 C 11,7 C 73 % 1007,9 hPa 0,0 l/m 0 min 0 min 0,0 UV-I 134 W/m 15,4 km/h (3 Bft)
06.05.2014 08:14 12,3 C 11,7 C 73 % 1007,9 hPa 0,0 l/m 0 min 0 min 0,0 UV-I 132 W/m 12,9 km/h (3 Bft)
06.05.2014 08:16 12,3 C 11,7 C 73 % 1007,9 hPa 0,0 l/m 0 min 0 min 0,0 UV-I 134 W/m 12,9 km/h (3 Bft)
06.05.2014 08:18 12,4 C 11,7 C 73 % 1007,9 hPa 0,0 l/m 0 min 0 min 0,0 UV-I 137 W/m 7,7 km/h (2 Bft)
06.05.2014 08:20 12,4 C 11,7 C 74 % 1007,9 hPa 0,0 l/m 0 min 0 min 0,0 UV-I 141 W/m 10,3 km/h (2 Bft)
06.05.2014 08:22 12,4 C 11,7 C 74 % 1007,7 hPa 0,0 l/m 0 min 0 min 0,0 UV-I 139 W/m 12,9 km/h (3 Bft)
06.05.2014 08:24 12,5 C 12,2 C 74 % 1007,7 hPa 0,0 l/m 0 min 0 min 0,0 UV-I 141 W/m 7,7 km/h (2 Bft)
06.05.2014 08:26 12,6 C 12,2 C 73 % 1007,8 hPa 0,0 l/m 0 min 0 min 0,0 UV-I 141 W/m 5,1 km/h (1 Bft)
06.05.2014 08:28 12,6 C 12,2 C 74 % 1007,9 hPa 0,0 l/m 0 min 0 min 0,0 UV-I 148 W/m 10,3 km/h (2 Bft)
06.05.2014 08:30 12,6 C 12,2 C 74 % 1007,8 hPa 0,0 l/m 0 min 0 min 0,0 UV-I 155 W/m 7,7 km/h (2 Bft)
06.05.2014 08:32 12,7 C 12,2 C 74 % 1007,9 hPa 0,0 l/m 0 min 0 min 0,0 UV-I 163 W/m 12,9 km/h (3 Bft)
06.05.2014 08:34 12,7 C 12,2 C 74 % 1007,8 hPa 0,0 l/m 0 min 0 min 0,0 UV-I 176 W/m 12,9 km/h (3 Bft)
06.05.2014 08:36 12,8 C 12,2 C 74 % 1007,8 hPa 0,0 l/m 0 min 0 min 0,0 UV-I 179 W/m 7,7 km/h (2 Bft)
06.05.2014 08:38 12,8 C 12,2 C 73 % 1007,8 hPa 0,0 l/m 0 min 0 min 0,0 UV-I 181 W/m 10,3 km/h (2 Bft)
06.05.2014 08:40 12,9 C 12,2 C 74 % 1007,7 hPa 0,0 l/m 0 min 0 min 0,0 UV-I 169 W/m 7,7 km/h (2 Bft)
06.05.2014 08:42 13,0 C 12,8 C 73 % 1007,8 hPa 0,0 l/m 0 min 0 min 0,0 UV-I 165 W/m 5,1 km/h (1 Bft)
06.05.2014 08:44 13,0 C 12,8 C 73 % 1007,7 hPa 0,0 l/m 0 min 0 min 0,0 UV-I 163 W/m 2,6 km/h (1 Bft)
06.05.2014 08:46 13,1 C 12,8 C 73 % 1007,6 hPa 0,0 l/m 0 min 0 min 0,0 UV-I 163 W/m 10,3 km/h (2 Bft)
06.05.2014 08:48 13,1 C 12,8 C 74 % 1007,6 hPa 0,0 l/m 0 min 0 min 0,0 UV-I 163 W/m 7,7 km/h (2 Bft)
06.05.2014 08:50 13,1 C 12,8 C 73 % 1007,8 hPa 0,0 l/m 0 min 0 min 0,0 UV-I 162 W/m 5,1 km/h (1 Bft)
06.05.2014 08:52 13,1 C 12,8 C 74 % 1007,8 hPa 0,0 l/m 0 min 0 min 0,0 UV-I 160 W/m 7,7 km/h (2 Bft)
06.05.2014 08:54 13,1 C 12,8 C 74 % 1007,7 hPa 0,0 l/m 0 min 0 min 0,0 UV-I 160 W/m 10,3 km/h (2 Bft)
06.05.2014 08:56 13,2 C 12,8 C 73 % 1007,8 hPa 0,0 l/m 0 min 0 min 0,0 UV-I 165 W/m 15,4 km/h (3 Bft)
06.05.2014 08:58 13,2 C 12,8 C 73 % 1007,7 hPa 0,0 l/m 0 min 0 min 0,0 UV-I 167 W/m 10,3 km/h (2 Bft)
06.05.2014 09:00 13,2 C 12,8 C 74 % 1007,7 hPa 0,0 l/m 0 min 0 min 0,0 UV-I 167 W/m 15,4 km/h (3 Bft)
06.05.2014 09:02 13,2 C 12,8 C 74 % 1007,7 hPa 0,0 l/m 0 min 0 min 0,0 UV-I 165 W/m 12,9 km/h (3 Bft)
06.05.2014 09:06 13,3 C 12,8 C 74 % 1007,7 hPa 0,0 l/m 0 min 0 min 0,0 UV-I 163 W/m 12,9 km/h (3 Bft)
06.05.2014 09:08 13,3 C 12,8 C 74 % 1007,7 hPa 0,0 l/m 0 min 0 min 0,0 UV-I 165 W/m 12,9 km/h (3 Bft)
06.05.2014 09:10 13,3 C 12,8 C 74 % 1007,8 hPa 0,0 l/m 0 min 0 min 0,0 UV-I 167 W/m 10,3 km/h (2 Bft)
06.05.2014 09:12 13,4 C 12,8 C 74 % 1007,9 hPa 0,0 l/m 0 min 0 min 0,0 UV-I 169 W/m 12,9 km/h (3 Bft)
06.05.2014 09:14 13,4 C 12,8 C 74 % 1007,8 hPa 0,0 l/m 0 min 0 min 0,0 UV-I 172 W/m 7,7 km/h (2 Bft)
06.05.2014 09:16 13,4 C 12,8 C 74 % 1007,9 hPa 0,0 l/m 0 min 0 min 0,0 UV-I 172 W/m 0,0 km/h (0 Bft)
06.05.2014 09:18 13,4 C 12,8 C 74 % 1007,8 hPa 0,0 l/m 0 min 0 min 0,0 UV-I 174 W/m 10,3 km/h (2 Bft)
06.05.2014 09:20 13,5 C 12,8 C 74 % 1007,9 hPa 0,0 l/m 0 min 0 min 0,0 UV-I 171 W/m 0,0 km/h (0 Bft)
06.05.2014 09:22 13,5 C 12,8 C 74 % 1007,8 hPa 0,0 l/m 0 min 0 min 0,0 UV-I 171 W/m 2,6 km/h (1 Bft)
06.05.2014 09:24 13,6 C 12,8 C 74 % 1007,8 hPa 0,0 l/m 0 min 0 min 0,0 UV-I 178 W/m 5,1 km/h (1 Bft)
06.05.2014 09:26 13,6 C 13,3 C 74 % 1007,8 hPa 0,0 l/m 0 min 0 min 0,0 UV-I 183 W/m 10,3 km/h (2 Bft)
06.05.2014 09:28 13,7 C 13,3 C 74 % 1007,8 hPa 0,0 l/m 0 min 0 min 0,0 UV-I 183 W/m 10,3 km/h (2 Bft)
06.05.2014 09:30 13,7 C 13,3 C 75 % 1007,8 hPa 0,0 l/m 0 min 0 min 0,0 UV-I 202 W/m 10,3 km/h (2 Bft)
06.05.2014 09:32 13,8 C 13,3 C 75 % 1007,8 hPa 0,0 l/m 0 min 0 min 0,0 UV-I 200 W/m 10,3 km/h (2 Bft)
06.05.2014 09:34 13,9 C 13,3 C 74 % 1007,8 hPa 0,0 l/m 0 min 0 min 0,0 UV-I 216 W/m 2,6 km/h (1 Bft)
06.05.2014 09:36 14,0 C 13,9 C 75 % 1007,8 hPa 0,0 l/m 0 min 0 min 0,0 UV-I 269 W/m 7,7 km/h (2 Bft)
06.05.2014 09:38 14,2 C 13,9 C 74 % 1007,8 hPa 0,0 l/m 0 min 0 min 0,0 UV-I 279 W/m 10,3 km/h (2 Bft)
06.05.2014 09:40 14,2 C 13,9 C 74 % 1007,8 hPa 0,0 l/m 0 min 0 min 0,5 UV-I 292 W/m 5,1 km/h (1 Bft)
06.05.2014 09:42 14,4 C 14,4 C 75 % 1007,8 hPa 0,0 l/m 2 min 0 min 0,5 UV-I 327 W/m 10,3 km/h (2 Bft)
06.05.2014 09:44 14,7 C 15,0 C 74 % 1007,8 hPa 0,0 l/m 2 min 0 min 0,6 UV-I 346 W/m 10,3 km/h (2 Bft)
06.05.2014 09:46 14,8 C 15,6 C 73 % 1007,8 hPa 0,0 l/m 2 min 0 min 0,7 UV-I 381 W/m 7,7 km/h (2 Bft)
06.05.2014 09:48 15,0 C 16,1 C 73 % 1007,8 hPa 0,0 l/m 2 min 0 min 0,7 UV-I 381 W/m 10,3 km/h (2 Bft)
06.05.2014 09:50 15,2 C 16,7 C 73 % 1007,8 hPa 0,0 l/m 2 min 0 min 0,9 UV-I 432 W/m 0,0 km/h (0 Bft)
06.05.2014 09:52 15,4 C 17,2 C 73 % 1007,8 hPa 0,0 l/m 2 min 0 min 0,9 UV-I 462 W/m 7,7 km/h (2 Bft)
06.05.2014 09:54 15,8 C 17,8 C 73 % 1007,8 hPa 0,0 l/m 2 min 0 min 1,0 UV-I 487 W/m 10,3 km/h (2 Bft)
06.05.2014 09:56 16,1 C 18,3 C 72 % 1007,7 hPa 0,0 l/m 2 min 0 min 1,1 UV-I 487 W/m 2,6 km/h (1 Bft)
06.05.2014 09:58 16,2 C 18,3 C 70 % 1007,7 hPa 0,0 l/m 2 min 0 min 1,1 UV-I 520 W/m 10,3 km/h (2 Bft)
06.05.2014 10:00 16,6 C 18,9 C 70 % 1007,7 hPa 0,0 l/m 2 min 0 min 1,0 UV-I 492 W/m 12,9 km/h (3 Bft)
06.05.2014 10:02 16,8 C 18,3 C 69 % 1007,7 hPa 0,0 l/m 2 min 0 min 0,9 UV-I 441 W/m 18,0 km/h (3 Bft)
06.05.2014 10:06 16,9 C 17,8 C 68 % 1007,8 hPa 0,0 l/m 2 min 0 min 0,8 UV-I 360 W/m 12,9 km/h (3 Bft)
06.05.2014 10:08 17,1 C 17,8 C 67 % 1007,9 hPa 0,0 l/m 2 min 0 min 0,9 UV-I 388 W/m 15,4 km/h (3 Bft)
06.05.2014 10:10 17,1 C 17,8 C 66 % 1007,9 hPa 0,0 l/m 2 min 0 min 1,1 UV-I 461 W/m 7,7 km/h (2 Bft)
06.05.2014 10:12 17,2 C 18,3 C 67 % 1007,9 hPa 0,0 l/m 2 min 0 min 0,9 UV-I 452 W/m 10,3 km/h (2 Bft)
06.05.2014 10:14 17,4 C 18,3 C 66 % 1007,8 hPa 0,0 l/m 2 min 0 min 0,8 UV-I 367 W/m 10,3 km/h (2 Bft)
06.05.2014 10:16 17,4 C 17,8 C 64 % 1007,8 hPa 0,0 l/m 0 min 0 min 0,6 UV-I 320 W/m 10,3 km/h (2 Bft)
06.05.2014 10:18 17,5 C 17,8 C 63 % 1007,8 hPa 0,0 l/m 0 min 0 min 0,6 UV-I 272 W/m 12,9 km/h (3 Bft)
06.05.2014 10:20 17,6 C 17,2 C 64 % 1007,8 hPa 0,0 l/m 0 min 0 min 0,5 UV-I 255 W/m 0,0 km/h (0 Bft)
06.05.2014 10:22 17,6 C 17,2 C 64 % 1007,8 hPa 0,0 l/m 0 min 0 min 0,5 UV-I 244 W/m 0,0 km/h (0 Bft)
06.05.2014 10:24 17,6 C 17,2 C 65 % 1007,8 hPa 0,0 l/m 0 min 0 min 0,5 UV-I 239 W/m 10,3 km/h (2 Bft)
06.05.2014 10:26 17,6 C 17,2 C 64 % 1007,8 hPa 0,0 l/m 0 min 0 min 0,5 UV-I 244 W/m 12,9 km/h (3 Bft)
06.05.2014 10:28 17,6 C 16,7 C 63 % 1007,8 hPa 0,0 l/m 0 min 0 min 0,6 UV-I 250 W/m 12,9 km/h (3 Bft)
06.05.2014 10:30 17,6 C 16,7 C 64 % 1007,8 hPa 0,0 l/m 0 min 0 min 0,6 UV-I 258 W/m 12,9 km/h (3 Bft)
06.05.2014 10:32 17,6 C 16,7 C 64 % 1007,8 hPa 0,0 l/m 0 min 0 min 0,7 UV-I 272 W/m 12,9 km/h (3 Bft)
06.05.2014 10:34 17,6 C 17,2 C 65 % 1007,8 hPa 0,0 l/m 0 min 0 min 0,8 UV-I 295 W/m 7,7 km/h (2 Bft)
06.05.2014 10:36 17,7 C 17,2 C 65 % 1007,8 hPa 0,0 l/m 0 min 0 min 0,8 UV-I 308 W/m 2,6 km/h (1 Bft)
06.05.2014 10:38 17,7 C 17,2 C 65 % 1007,8 hPa 0,0 l/m 0 min 0 min 0,9 UV-I 323 W/m 0,0 km/h (0 Bft)
06.05.2014 10:40 17,8 C 17,8 C 65 % 1007,8 hPa 0,0 l/m 0 min 0 min 0,9 UV-I 325 W/m 10,3 km/h (2 Bft)
06.05.2014 10:42 17,9 C 17,8 C 64 % 1007,8 hPa 0,0 l/m 0 min 0 min 0,9 UV-I 323 W/m 10,3 km/h (2 Bft)
06.05.2014 10:44 17,9 C 17,8 C 63 % 1007,8 hPa 0,0 l/m 0 min 0 min 0,7 UV-I 288 W/m 12,9 km/h (3 Bft)
06.05.2014 10:46 18,0 C 17,8 C 64 % 1007,8 hPa 0,0 l/m 0 min 0 min 0,6 UV-I 262 W/m 0,0 km/h (0 Bft)
06.05.2014 10:48 18,0 C 17,2 C 64 % 1007,7 hPa 0,0 l/m 0 min 0 min 0,6 UV-I 239 W/m 10,3 km/h (2 Bft)
06.05.2014 10:50 17,9 C 17,2 C 63 % 1007,8 hPa 0,0 l/m 0 min 0 min 0,5 UV-I 234 W/m 7,7 km/h (2 Bft)
06.05.2014 10:52 17,9 C 17,2 C 64 % 1007,8 hPa 0,0 l/m 0 min 0 min 0,0 UV-I 211 W/m 10,3 km/h (2 Bft)
06.05.2014 10:54 17,9 C 17,2 C 64 % 1007,8 hPa 0,0 l/m 0 min 0 min 0,0 UV-I 181 W/m 7,7 km/h (2 Bft)
06.05.2014 10:56 17,8 C 16,7 C 64 % 1007,8 hPa 0,0 l/m 0 min 0 min 0,0 UV-I 178 W/m 7,7 km/h (2 Bft)
06.05.2014 10:58 17,8 C 16,7 C 63 % 1007,8 hPa 0,0 l/m 0 min 0 min 0,0 UV-I 171 W/m 15,4 km/h (3 Bft)
06.05.2014 11:00 17,8 C 16,7 C 64 % 1007,8 hPa 0,0 l/m 0 min 0 min 0,0 UV-I 176 W/m 15,4 km/h (3 Bft)
06.05.2014 11:02 17,8 C 16,7 C 64 % 1007,8 hPa 0,0 l/m 0 min 0 min 0,0 UV-I 186 W/m 10,3 km/h (2 Bft)
06.05.2014 11:06 17,8 C 16,7 C 66 % 1008,0 hPa 0,0 l/m 0 min 0 min 0,5 UV-I 227 W/m 10,3 km/h (2 Bft)
06.05.2014 11:08 17,8 C 17,2 C 65 % 1008,0 hPa 0,0 l/m 0 min 0 min 0,7 UV-I 246 W/m 7,7 km/h (2 Bft)
06.05.2014 11:10 17,9 C 17,2 C 66 % 1008,0 hPa 0,0 l/m 0 min 0 min 0,8 UV-I 269 W/m 10,3 km/h (2 Bft)
06.05.2014 11:12 17,9 C 17,2 C 64 % 1008,0 hPa 0,0 l/m 0 min 0 min 0,9 UV-I 297 W/m 10,3 km/h (2 Bft)
06.05.2014 11:14 18,1 C 17,8 C 65 % 1008,0 hPa 0,0 l/m 0 min 0 min 1,0 UV-I 302 W/m 2,6 km/h (1 Bft)
06.05.2014 11:16 18,2 C 17,8 C 64 % 1008,0 hPa 0,0 l/m 0 min 0 min 1,0 UV-I 302 W/m 10,3 km/h (2 Bft)
06.05.2014 11:18 18,3 C 17,8 C 65 % 1008,0 hPa 0,0 l/m 0 min 0 min 1,2 UV-I 341 W/m 0,0 km/h (0 Bft)
06.05.2014 11:20 18,4 C 18,3 C 65 % 1008,0 hPa 0,0 l/m 0 min 0 min 1,3 UV-I 380 W/m 7,7 km/h (2 Bft)
06.05.2014 11:22 18,4 C 18,3 C 65 % 1008,0 hPa 0,0 l/m 0 min 0 min 1,3 UV-I 397 W/m 7,7 km/h (2 Bft)
06.05.2014 11:24 18,6 C 18,9 C 64 % 1008,1 hPa 0,0 l/m 2 min 0 min 1,4 UV-I 403 W/m 7,7 km/h (2 Bft)
06.05.2014 11:26 18,7 C 18,9 C 63 % 1008,0 hPa 0,0 l/m 2 min 0 min 1,3 UV-I 404 W/m 12,9 km/h (3 Bft)
06.05.2014 11:28 18,7 C 18,9 C 64 % 1008,0 hPa 0,0 l/m 0 min 0 min 1,2 UV-I 330 W/m 5,1 km/h (1 Bft)
06.05.2014 11:30 18,8 C 18,9 C 64 % 1007,9 hPa 0,0 l/m 0 min 0 min 0,9 UV-I 301 W/m 0,0 km/h (0 Bft)
06.05.2014 11:32 18,7 C 18,3 C 62 % 1008,0 hPa 0,0 l/m 0 min 0 min 0,9 UV-I 294 W/m 12,9 km/h (3 Bft)
06.05.2014 11:34 18,7 C 18,3 C 62 % 1008,0 hPa 0,0 l/m 0 min 0 min 0,9 UV-I 288 W/m 10,3 km/h (2 Bft)
06.05.2014 11:36 18,7 C 18,3 C 63 % 1008,1 hPa 0,0 l/m 0 min 0 min 0,9 UV-I 276 W/m 10,3 km/h (2 Bft)
06.05.2014 11:38 18,6 C 17,8 C 62 % 1008,2 hPa 0,0 l/m 0 min 0 min 0,6 UV-I 232 W/m 12,9 km/h (3 Bft)
06.05.2014 11:40 18,4 C 17,8 C 62 % 1008,2 hPa 0,0 l/m 0 min 0 min 0,5 UV-I 200 W/m 15,4 km/h (3 Bft)
06.05.2014 11:42 18,4 C 17,8 C 62 % 1008,2 hPa 0,0 l/m 0 min 0 min 0,7 UV-I 236 W/m 20,6 km/h (4 Bft)
06.05.2014 11:44 18,3 C 17,8 C 62 % 1008,2 hPa 0,0 l/m 0 min 0 min 0,9 UV-I 276 W/m 18,0 km/h (3 Bft)
06.05.2014 11:46 18,3 C 17,8 C 62 % 1008,2 hPa 0,0 l/m 0 min 0 min 0,9 UV-I 267 W/m 12,9 km/h (3 Bft)
06.05.2014 11:48 18,3 C 17,8 C 64 % 1008,2 hPa 0,0 l/m 0 min 0 min 0,7 UV-I 243 W/m 18,0 km/h (3 Bft)
06.05.2014 11:50 18,2 C 17,2 C 62 % 1008,2 hPa 0,0 l/m 0 min 0 min 0,5 UV-I 218 W/m 23,2 km/h (4 Bft)
06.05.2014 11:52 18,1 C 17,2 C 63 % 1008,3 hPa 0,0 l/m 0 min 0 min 0,0 UV-I 186 W/m 18,0 km/h (3 Bft)
06.05.2014 11:54 18,1 C 16,7 C 63 % 1008,3 hPa 0,0 l/m 0 min 0 min 0,0 UV-I 165 W/m 10,3 km/h (2 Bft)
06.05.2014 11:56 18,0 C 16,7 C 63 % 1008,3 hPa 0,0 l/m 0 min 0 min 0,0 UV-I 148 W/m 10,3 km/h (2 Bft)
06.05.2014 11:58 17,9 C 16,7 C 64 % 1008,4 hPa 0,0 l/m 0 min 0 min 0,0 UV-I 137 W/m 7,7 km/h (2 Bft)
06.05.2014 12:00 17,8 C 16,7 C 64 % 1008,3 hPa 0,0 l/m 0 min 0 min 0,0 UV-I 130 W/m 10,3 km/h (2 Bft)
06.05.2014 12:02 17,8 C 16,7 C 64 % 1008,3 hPa 0,0 l/m 0 min 0 min 0,0 UV-I 123 W/m 15,4 km/h (3 Bft)
06.05.2014 12:06 17,7 C 16,1 C 64 % 1008,3 hPa 0,0 l/m 0 min 0 min 0,0 UV-I 111 W/m 12,9 km/h (3 Bft)
06.05.2014 12:08 17,7 C 16,1 C 66 % 1008,3 hPa 0,0 l/m 0 min 0 min 0,0 UV-I 107 W/m 5,1 km/h (1 Bft)
06.05.2014 12:10 17,6 C 16,1 C 65 % 1008,3 hPa 0,0 l/m 0 min 0 min 0,0 UV-I 102 W/m 10,3 km/h (2 Bft)
06.05.2014 12:12 17,6 C 16,1 C 66 % 1008,4 hPa 0,0 l/m 0 min 0 min 0,0 UV-I 97 W/m 2,6 km/h (1 Bft)
06.05.2014 12:14 17,6 C 16,1 C 65 % 1008,4 hPa 0,0 l/m 0 min 0 min 0,0 UV-I 91 W/m 12,9 km/h (3 Bft)
06.05.2014 12:16 17,5 C 16,1 C 65 % 1008,4 hPa 0,0 l/m 0 min 2 min 0,0 UV-I 81 W/m 15,4 km/h (3 Bft)
06.05.2014 12:18 17,4 C 15,6 C 66 % 1008,4 hPa 0,0 l/m 0 min 2 min 0,0 UV-I 76 W/m 7,7 km/h (2 Bft)
06.05.2014 12:20 17,4 C 15,0 C 68 % 1008,4 hPa 0,0 l/m 0 min 2 min 0,0 UV-I 72 W/m 2,6 km/h (1 Bft)
06.05.2014 12:22 17,2 C 13,9 C 69 % 1008,6 hPa 0,0 l/m 0 min 2 min 0,0 UV-I 76 W/m 7,7 km/h (2 Bft)
06.05.2014 12:24 17,1 C 13,9 C 70 % 1008,5 hPa 0,0 l/m 0 min 2 min 0,0 UV-I 77 W/m 5,1 km/h (1 Bft)
06.05.2014 12:26 16,9 C 13,9 C 71 % 1008,6 hPa 0,0 l/m 0 min 2 min 0,0 UV-I 88 W/m 0,0 km/h (0 Bft)
06.05.2014 12:28 16,8 C 13,3 C 71 % 1008,6 hPa 0,0 l/m 0 min 2 min 0,0 UV-I 100 W/m 15,4 km/h (3 Bft)
06.05.2014 12:30 16,7 C 13,3 C 71 % 1008,6 hPa 0,0 l/m 0 min 0 min 0,0 UV-I 111 W/m 23,2 km/h (4 Bft)
06.05.2014 12:32 16,7 C 13,3 C 71 % 1008,6 hPa 0,0 l/m 0 min 2 min 0,0 UV-I 116 W/m 15,4 km/h (3 Bft)
06.05.2014 12:34 16,6 C 13,9 C 72 % 1008,7 hPa 0,0 l/m 0 min 0 min 0,0 UV-I 100 W/m 10,3 km/h (2 Bft)
06.05.2014 12:36 16,6 C 13,9 C 73 % 1008,7 hPa 0,0 l/m 0 min 0 min 0,0 UV-I 91 W/m 5,1 km/h (1 Bft)
06.05.2014 12:38 16,6 C 13,9 C 72 % 1008,7 hPa 0,0 l/m 0 min 0 min 0,0 UV-I 88 W/m 5,1 km/h (1 Bft)
06.05.2014 12:40 16,5 C 13,9 C 71 % 1008,8 hPa 0,0 l/m 0 min 2 min 0,0 UV-I 90 W/m 7,7 km/h (2 Bft)
06.05.2014 12:42 16,5 C 13,9 C 72 % 1008,8 hPa 0,0 l/m 0 min 2 min 0,0 UV-I 91 W/m 0,0 km/h (0 Bft)
06.05.2014 12:44 16,5 C 13,9 C 72 % 1008,8 hPa 0,0 l/m 0 min 2 min 0,0 UV-I 102 W/m 12,9 km/h (3 Bft)
06.05.2014 12:46 16,5 C 13,9 C 72 % 1008,8 hPa 0,0 l/m 0 min 2 min 0,0 UV-I 120 W/m 7,7 km/h (2 Bft)
06.05.2014 12:48 16,5 C 13,9 C 74 % 1008,8 hPa 0,0 l/m 0 min 2 min 0,0 UV-I 123 W/m 0,0 km/h (0 Bft)
06.05.2014 12:50 16,5 C 13,9 C 73 % 1008,8 hPa 0,0 l/m 0 min 2 min 0,0 UV-I 123 W/m 5,1 km/h (1 Bft)
06.05.2014 12:52 16,5 C 13,9 C 73 % 1008,8 hPa 0,0 l/m 0 min 0 min 0,0 UV-I 125 W/m 2,6 km/h (1 Bft)
06.05.2014 12:54 16,5 C 13,9 C 74 % 1008,9 hPa 0,0 l/m 0 min 2 min 0,0 UV-I 127 W/m 0,0 km/h (0 Bft)
06.05.2014 12:56 16,5 C 13,9 C 74 % 1008,9 hPa 0,0 l/m 0 min 2 min 0,0 UV-I 128 W/m 0,0 km/h (0 Bft)
06.05.2014 12:58 16,5 C 13,9 C 75 % 1008,9 hPa 0,0 l/m 0 min 2 min 0,0 UV-I 134 W/m 0,0 km/h (0 Bft)
06.05.2014 13:00 16,5 C 13,9 C 75 % 1008,9 hPa 0,0 l/m 0 min 2 min 0,0 UV-I 142 W/m 10,3 km/h (2 Bft)
06.05.2014 13:02 16,5 C 13,9 C 74 % 1008,9 hPa 0,0 l/m 0 min 0 min 0,0 UV-I 149 W/m 15,4 km/h (3 Bft)
06.05.2014 13:06 16,5 C 14,4 C 74 % 1009,0 hPa 0,0 l/m 0 min 2 min 0,0 UV-I 165 W/m 15,4 km/h (3 Bft)
06.05.2014 13:08 16,5 C 14,4 C 75 % 1009,0 hPa 0,0 l/m 0 min 2 min 0,0 UV-I 185 W/m 7,7 km/h (2 Bft)
06.05.2014 13:10 16,6 C 14,4 C 75 % 1009,0 hPa 0,0 l/m 0 min 2 min 0,6 UV-I 204 W/m 7,7 km/h (2 Bft)
06.05.2014 13:12 16,6 C 15,0 C 76 % 1009,1 hPa 0,0 l/m 0 min 2 min 0,6 UV-I 206 W/m 0,0 km/h (0 Bft)
06.05.2014 13:14 16,6 C 15,0 C 76 % 1009,0 hPa 0,0 l/m 0 min 2 min 0,6 UV-I 202 W/m 7,7 km/h (2 Bft)
06.05.2014 13:16 16,6 C 15,0 C 76 % 1009,0 hPa 0,0 l/m 0 min 2 min 0,6 UV-I 199 W/m 18,0 km/h (3 Bft)
06.05.2014 13:18 16,6 C 15,0 C 76 % 1009,1 hPa 0,0 l/m 0 min 0 min 0,6 UV-I 204 W/m 20,6 km/h (4 Bft)
06.05.2014 13:20 16,6 C 15,0 C 76 % 1009,0 hPa 0,0 l/m 0 min 2 min 0,6 UV-I 197 W/m 12,9 km/h (3 Bft)
06.05.2014 13:22 16,7 C 15,0 C 76 % 1009,1 hPa 0,0 l/m 0 min 2 min 0,6 UV-I 197 W/m 10,3 km/h (2 Bft)
06.05.2014 13:24 16,7 C 15,0 C 75 % 1009,1 hPa 0,0 l/m 0 min 2 min 0,7 UV-I 218 W/m 15,4 km/h (3 Bft)
06.05.2014 13:26 16,7 C 15,6 C 75 % 1009,1 hPa 0,0 l/m 0 min 2 min 0,9 UV-I 257 W/m 10,3 km/h (2 Bft)
06.05.2014 13:28 16,7 C 15,6 C 75 % 1009,1 hPa 0,0 l/m 0 min 0 min 1,0 UV-I 262 W/m 18,0 km/h (3 Bft)
06.05.2014 13:30 16,8 C 16,1 C 74 % 1009,1 hPa 0,0 l/m 0 min 2 min 0,8 UV-I 239 W/m 12,9 km/h (3 Bft)
06.05.2014 13:32 16,9 C 16,1 C 74 % 1009,1 hPa 0,0 l/m 0 min 0 min 0,6 UV-I 202 W/m 10,3 km/h (2 Bft)
06.05.2014 13:34 17,0 C 16,1 C 75 % 1009,2 hPa 0,0 l/m 0 min 2 min 0,5 UV-I 199 W/m 10,3 km/h (2 Bft)
06.05.2014 13:36 16,9 C 15,6 C 76 % 1009,2 hPa 0,0 l/m 0 min 2 min 0,6 UV-I 206 W/m 25,7 km/h (4 Bft)
06.05.2014 13:38 16,8 C 15,0 C 76 % 1009,2 hPa 0,0 l/m 0 min 2 min 0,6 UV-I 195 W/m 20,6 km/h (4 Bft)
06.05.2014 13:40 16,7 C 14,4 C 77 % 1009,0 hPa 0,0 l/m 0 min 2 min 0,5 UV-I 174 W/m 12,9 km/h (3 Bft)
06.05.2014 13:42 16,7 C 14,4 C 78 % 1009,0 hPa 0,0 l/m 0 min 2 min 0,5 UV-I 179 W/m 10,3 km/h (2 Bft)
06.05.2014 13:44 16,6 C 14,4 C 78 % 1008,9 hPa 0,0 l/m 0 min 2 min 0,6 UV-I 227 W/m 0,0 km/h (0 Bft)
06.05.2014 13:46 16,6 C 15,0 C 78 % 1008,9 hPa 0,0 l/m 0 min 0 min 1,1 UV-I 276 W/m 10,3 km/h (2 Bft)
06.05.2014 13:48 16,7 C 15,6 C 79 % 1008,9 hPa 0,0 l/m 0 min 2 min 1,3 UV-I 315 W/m 0,0 km/h (0 Bft)
06.05.2014 13:50 16,8 C 16,1 C 80 % 1008,9 hPa 0,0 l/m 0 min 2 min 1,4 UV-I 338 W/m 2,6 km/h (1 Bft)
06.05.2014 13:52 16,9 C 16,1 C 79 % 1008,8 hPa 0,0 l/m 0 min 0 min 1,4 UV-I 338 W/m 10,3 km/h (2 Bft)
06.05.2014 13:54 17,1 C 16,7 C 78 % 1008,8 hPa 0,0 l/m 0 min 0 min 1,4 UV-I 329 W/m 10,3 km/h (2 Bft)
06.05.2014 13:56 17,2 C 17,2 C 78 % 1008,8 hPa 0,0 l/m 0 min 2 min 1,2 UV-I 294 W/m 10,3 km/h (2 Bft)
06.05.2014 13:58 17,2 C 17,2 C 76 % 1008,8 hPa 0,0 l/m 0 min 2 min 1,1 UV-I 269 W/m 7,7 km/h (2 Bft)
06.05.2014 14:00 17,2 C 17,2 C 78 % 1008,8 hPa 0,0 l/m 0 min 0 min 1,0 UV-I 260 W/m 12,9 km/h (3 Bft)
06.05.2014 14:02 17,2 C 17,2 C 76 % 1008,8 hPa 0,0 l/m 0 min 0 min 0,9 UV-I 241 W/m 12,9 km/h (3 Bft)
06.05.2014 14:06 17,2 C 16,7 C 76 % 1008,8 hPa 0,0 l/m 0 min 0 min 0,7 UV-I 216 W/m 15,4 km/h (3 Bft)
06.05.2014 14:08 17,1 C 16,7 C 76 % 1008,7 hPa 0,0 l/m 0 min 0 min 0,7 UV-I 221 W/m 12,9 km/h (3 Bft)
06.05.2014 14:10 17,1 C 16,7 C 76 % 1008,7 hPa 0,0 l/m 0 min 0 min 0,7 UV-I 221 W/m 10,3 km/h (2 Bft)
06.05.2014 14:12 17,0 C 16,7 C 76 % 1008,7 hPa 0,0 l/m 0 min 2 min 0,8 UV-I 232 W/m 18,0 km/h (3 Bft)
06.05.2014 14:14 16,9 C 16,7 C 76 % 1008,7 hPa 0,0 l/m 0 min 2 min 0,9 UV-I 239 W/m 12,9 km/h (3 Bft)
06.05.2014 14:16 16,9 C 16,7 C 78 % 1008,7 hPa 0,0 l/m 0 min 0 min 0,9 UV-I 248 W/m 5,1 km/h (1 Bft)
06.05.2014 14:18 17,0 C 16,7 C 77 % 1008,6 hPa 0,0 l/m 0 min 0 min 1,0 UV-I 267 W/m 15,4 km/h (3 Bft)
06.05.2014 14:20 17,1 C 16,7 C 78 % 1008,7 hPa 0,0 l/m 0 min 0 min 1,1 UV-I 272 W/m 7,7 km/h (2 Bft)
06.05.2014 14:22 17,2 C 17,2 C 77 % 1008,6 hPa 0,0 l/m 0 min 0 min 1,0 UV-I 269 W/m 10,3 km/h (2 Bft)
06.05.2014 14:24 17,2 C 17,2 C 77 % 1008,5 hPa 0,0 l/m 0 min 0 min 0,9 UV-I 253 W/m 12,9 km/h (3 Bft)
06.05.2014 14:26 17,2 C 17,2 C 77 % 1008,6 hPa 0,0 l/m 0 min 0 min 0,8 UV-I 234 W/m 7,7 km/h (2 Bft)
06.05.2014 14:28 17,2 C 17,2 C 75 % 1008,5 hPa 0,0 l/m 0 min 0 min 0,8 UV-I 229 W/m 15,4 km/h (3 Bft)
06.05.2014 14:30 17,2 C 17,2 C 75 % 1008,6 hPa 0,0 l/m 0 min 0 min 0,9 UV-I 255 W/m 12,9 km/h (3 Bft)
06.05.2014 14:32 17,2 C 17,2 C 75 % 1008,5 hPa 0,0 l/m 0 min 0 min 1,0 UV-I 272 W/m 10,3 km/h (2 Bft)
06.05.2014 14:34 17,3 C 17,2 C 74 % 1008,5 hPa 0,0 l/m 0 min 0 min 1,0 UV-I 264 W/m 10,3 km/h (2 Bft)
06.05.2014 14:36 17,3 C 17,2 C 74 % 1008,4 hPa 0,0 l/m 0 min 0 min 0,8 UV-I 237 W/m 15,4 km/h (3 Bft)
06.05.2014 14:38 17,3 C 17,2 C 73 % 1008,5 hPa 0,0 l/m 0 min 0 min 1,0 UV-I 257 W/m 2,6 km/h (1 Bft)
06.05.2014 14:40 17,4 C 17,2 C 74 % 1008,6 hPa 0,0 l/m 0 min 0 min 1,2 UV-I 306 W/m 10,3 km/h (2 Bft)
06.05.2014 14:42 17,6 C 17,2 C 73 % 1008,6 hPa 0,0 l/m 0 min 0 min 1,4 UV-I 338 W/m 15,4 km/h (3 Bft)
06.05.2014 14:44 17,6 C 17,8 C 72 % 1008,6 hPa 0,0 l/m 0 min 0 min 1,4 UV-I 323 W/m 12,9 km/h (3 Bft)
06.05.2014 14:46 17,8 C 17,8 C 73 % 1008,5 hPa 0,0 l/m 0 min 0 min 1,4 UV-I 325 W/m 7,7 km/h (2 Bft)
06.05.2014 14:48 17,9 C 17,8 C 74 % 1008,4 hPa 0,0 l/m 0 min 0 min 1,5 UV-I 352 W/m 7,7 km/h (2 Bft)
06.05.2014 14:50 18,0 C 18,3 C 72 % 1008,3 hPa 0,0 l/m 0 min 0 min 1,4 UV-I 345 W/m 15,4 km/h (3 Bft)
06.05.2014 14:52 18,1 C 18,3 C 71 % 1008,3 hPa 0,0 l/m 0 min 0 min 1,3 UV-I 315 W/m 20,6 km/h (4 Bft)
06.05.2014 14:54 18,1 C 17,8 C 70 % 1008,3 hPa 0,0 l/m 0 min 0 min 1,4 UV-I 327 W/m 20,6 km/h (4 Bft)
06.05.2014 14:56 18,0 C 17,8 C 69 % 1008,3 hPa 0,0 l/m 0 min 0 min 1,5 UV-I 338 W/m 15,4 km/h (3 Bft)
06.05.2014 14:58 18,0 C 18,3 C 71 % 1008,2 hPa 0,0 l/m 0 min 0 min 1,5 UV-I 334 W/m 7,7 km/h (2 Bft)
06.05.2014 15:00 18,1 C 18,3 C 72 % 1008,2 hPa 0,0 l/m 0 min 0 min 1,7 UV-I 362 W/m 7,7 km/h (2 Bft)
06.05.2014 15:02 18,3 C 18,9 C 71 % 1008,2 hPa 0,0 l/m 0 min 0 min 4,1 UV-I 362 W/m 12,9 km/h (3 Bft)
06.05.2014 15:06 19,1 C 19,4 C 68 % 1008,1 hPa 0,0 l/m 2 min 0 min 2,1 UV-I 970 W/m 15,4 km/h (3 Bft)
06.05.2014 15:08 19,1 C 19,4 C 69 % 1008,1 hPa 0,0 l/m 2 min 0 min 2,2 UV-I 970 W/m 18,0 km/h (3 Bft)
06.05.2014 15:10 19,2 C 19,4 C 69 % 1008,2 hPa 0,0 l/m 2 min 0 min 3,7 UV-I 970 W/m 25,7 km/h (4 Bft)
06.05.2014 15:12 19,3 C 18,9 C 66 % 1008,2 hPa 0,0 l/m 0 min 0 min 1,5 UV-I 306 W/m 33,5 km/h (5 Bft)
06.05.2014 15:14 19,1 C 18,9 C 66 % 1008,2 hPa 0,0 l/m 0 min 0 min 1,7 UV-I 373 W/m 25,7 km/h (4 Bft)
06.05.2014 15:16 18,9 C 18,9 C 66 % 1008,2 hPa 0,0 l/m 0 min 0 min 1,5 UV-I 339 W/m 28,3 km/h (4 Bft)
06.05.2014 15:18 18,7 C 18,3 C 67 % 1008,2 hPa 0,0 l/m 0 min 0 min 0,9 UV-I 236 W/m 10,3 km/h (2 Bft)
06.05.2014 15:20 18,6 C 18,3 C 67 % 1008,1 hPa 0,0 l/m 0 min 0 min 0,7 UV-I 207 W/m 18,0 km/h (3 Bft)
06.05.2014 15:22 18,4 C 17,8 C 68 % 1008,1 hPa 0,0 l/m 0 min 0 min 0,0 UV-I 162 W/m 18,0 km/h (3 Bft)
06.05.2014 15:24 18,3 C 17,8 C 69 % 1008,0 hPa 0,0 l/m 0 min 0 min 0,0 UV-I 146 W/m 5,1 km/h (1 Bft)
06.05.2014 15:26 18,2 C 17,2 C 69 % 1008,0 hPa 0,0 l/m 0 min 0 min 0,0 UV-I 120 W/m 20,6 km/h (4 Bft)
06.05.2014 15:28 18,1 C 17,2 C 70 % 1008,1 hPa 0,0 l/m 0 min 0 min 0,0 UV-I 111 W/m 12,9 km/h (3 Bft)
06.05.2014 15:30 18,1 C 17,2 C 70 % 1008,0 hPa 0,0 l/m 0 min 0 min 0,0 UV-I 111 W/m 10,3 km/h (2 Bft)
06.05.2014 15:32 18,0 C 17,2 C 70 % 1008,1 hPa 0,0 l/m 0 min 0 min 0,0 UV-I 109 W/m 12,9 km/h (3 Bft)
06.05.2014 15:34 17,9 C 16,7 C 70 % 1008,0 hPa 0,0 l/m 0 min 0 min 0,0 UV-I 95 W/m 10,3 km/h (2 Bft)
06.05.2014 15:36 17,9 C 16,7 C 70 % 1008,0 hPa 0,0 l/m 0 min 0 min 0,0 UV-I 86 W/m 15,4 km/h (3 Bft)
06.05.2014 15:38 17,8 C 16,7 C 71 % 1008,0 hPa 0,0 l/m 0 min 0 min 0,0 UV-I 102 W/m 20,6 km/h (4 Bft)
06.05.2014 15:40 17,8 C 16,7 C 70 % 1008,0 hPa 0,0 l/m 0 min 0 min 0,0 UV-I 111 W/m 12,9 km/h (3 Bft)
06.05.2014 15:42 17,8 C 16,7 C 71 % 1008,0 hPa 0,0 l/m 0 min 0 min 0,0 UV-I 109 W/m 5,1 km/h (1 Bft)
06.05.2014 15:44 17,8 C 16,7 C 71 % 1008,0 hPa 0,0 l/m 0 min 0 min 0,0 UV-I 128 W/m 15,4 km/h (3 Bft)
06.05.2014 15:46 17,8 C 16,7 C 71 % 1008,0 hPa 0,0 l/m 0 min 0 min 0,0 UV-I 171 W/m 12,9 km/h (3 Bft)
06.05.2014 15:48 17,9 C 17,2 C 71 % 1008,1 hPa 0,0 l/m 0 min 0 min 0,7 UV-I 241 W/m 7,7 km/h (2 Bft)
06.05.2014 15:50 18,0 C 17,2 C 72 % 1008,1 hPa 0,0 l/m 0 min 0 min 0,9 UV-I 274 W/m 7,7 km/h (2 Bft)
06.05.2014 15:52 18,1 C 17,8 C 71 % 1008,1 hPa 0,0 l/m 0 min 0 min 0,8 UV-I 260 W/m 15,4 km/h (3 Bft)
06.05.2014 15:54 18,2 C 17,8 C 70 % 1008,1 hPa 0,0 l/m 0 min 0 min 0,8 UV-I 269 W/m 18,0 km/h (3 Bft)
06.05.2014 15:56 18,4 C 18,3 C 70 % 1008,0 hPa 0,0 l/m 0 min 0 min 1,0 UV-I 295 W/m 7,7 km/h (2 Bft)
06.05.2014 15:58 18,5 C 18,3 C 69 % 1008,0 hPa 0,0 l/m 0 min 0 min 0,8 UV-I 214 W/m 18,0 km/h (3 Bft)
06.05.2014 16:00 18,5 C 18,3 C 69 % 1008,0 hPa 0,0 l/m 0 min 0 min 0,0 UV-I 190 W/m 7,7 km/h (2 Bft)
06.05.2014 16:02 18,5 C 17,8 C 68 % 1008,0 hPa 0,0 l/m 0 min 0 min 0,0 UV-I 183 W/m 12,9 km/h (3 Bft)
06.05.2014 16:06 18,4 C 17,8 C 68 % 1007,9 hPa 0,0 l/m 0 min 0 min 0,5 UV-I 216 W/m 18,0 km/h (3 Bft)
06.05.2014 16:08 18,4 C 17,8 C 69 % 1007,9 hPa 0,0 l/m 0 min 0 min 0,0 UV-I 200 W/m 10,3 km/h (2 Bft)
06.05.2014 16:10 18,4 C 17,8 C 69 % 1007,9 hPa 0,0 l/m 0 min 0 min 0,0 UV-I 185 W/m 12,9 km/h (3 Bft)
06.05.2014 16:12 18,4 C 17,8 C 69 % 1007,9 hPa 0,0 l/m 0 min 0 min 0,0 UV-I 190 W/m 23,2 km/h (4 Bft)
06.05.2014 16:14 18,4 C 17,8 C 69 % 1007,9 hPa 0,0 l/m 0 min 0 min 0,0 UV-I 172 W/m 18,0 km/h (3 Bft)
06.05.2014 16:16 18,4 C 17,2 C 68 % 1007,9 hPa 0,0 l/m 0 min 0 min 0,0 UV-I 176 W/m 33,5 km/h (5 Bft)
06.05.2014 16:18 18,4 C 17,8 C 68 % 1007,9 hPa 0,0 l/m 0 min 0 min 0,8 UV-I 308 W/m 12,9 km/h (3 Bft)
06.05.2014 16:20 18,5 C 17,8 C 68 % 1007,8 hPa 0,0 l/m 0 min 0 min 0,7 UV-I 276 W/m 12,9 km/h (3 Bft)
06.05.2014 16:22 18,6 C 17,8 C 69 % 1007,8 hPa 0,0 l/m 0 min 0 min 0,7 UV-I 216 W/m 15,4 km/h (3 Bft)
06.05.2014 16:24 18,6 C 17,8 C 68 % 1007,8 hPa 0,0 l/m 0 min 0 min 0,8 UV-I 244 W/m 5,1 km/h (1 Bft)
06.05.2014 16:26 18,7 C 17,8 C 68 % 1007,7 hPa 0,0 l/m 0 min 0 min 0,9 UV-I 248 W/m 15,4 km/h (3 Bft)
06.05.2014 16:28 18,7 C 18,3 C 69 % 1007,7 hPa 0,0 l/m 0 min 0 min 0,8 UV-I 220 W/m 7,7 km/h (2 Bft)
06.05.2014 16:30 18,8 C 18,3 C 69 % 1007,7 hPa 0,0 l/m 2 min 0 min 1,4 UV-I 374 W/m 7,7 km/h (2 Bft)
06.05.2014 16:32 19,0 C 18,9 C 69 % 1007,7 hPa 0,0 l/m 2 min 0 min 2,1 UV-I 374 W/m 7,7 km/h (2 Bft)
06.05.2014 16:34 19,3 C 19,4 C 68 % 1007,6 hPa 0,0 l/m 2 min 0 min 2,1 UV-I 659 W/m 15,4 km/h (3 Bft)
06.05.2014 16:36 19,6 C 19,4 C 68 % 1007,6 hPa 0,0 l/m 2 min 0 min 2,0 UV-I 622 W/m 15,4 km/h (3 Bft)
06.05.2014 16:38 19,9 C 20,0 C 66 % 1007,5 hPa 0,0 l/m 2 min 0 min 2,0 UV-I 605 W/m 36,0 km/h (5 Bft)
06.05.2014 16:40 19,9 C 20,0 C 65 % 1007,5 hPa 0,0 l/m 2 min 0 min 1,9 UV-I 596 W/m 30,9 km/h (5 Bft)
06.05.2014 16:42 20,0 C 20,0 C 65 % 1007,6 hPa 0,0 l/m 2 min 0 min 1,9 UV-I 615 W/m 20,6 km/h (4 Bft)
06.05.2014 16:44 20,3 C 20,0 C 66 % 1007,5 hPa 0,0 l/m 2 min 0 min 1,8 UV-I 619 W/m 7,7 km/h (2 Bft)
06.05.2014 16:46 20,3 C 19,4 C 64 % 1007,6 hPa 0,0 l/m 0 min 0 min 0,9 UV-I 160 W/m 12,9 km/h (3 Bft)
06.05.2014 16:48 20,0 C 18,9 C 65 % 1007,5 hPa 0,0 l/m 0 min 0 min 1,7 UV-I 199 W/m 10,3 km/h (2 Bft)
06.05.2014 16:50 19,8 C 19,4 C 64 % 1007,5 hPa 0,0 l/m 2 min 0 min 1,9 UV-I 657 W/m 18,0 km/h (3 Bft)
06.05.2014 16:52 20,1 C 19,4 C 65 % 1007,3 hPa 0,0 l/m 2 min 0 min 1,7 UV-I 610 W/m 10,3 km/h (2 Bft)
06.05.2014 16:54 20,2 C 19,4 C 63 % 1007,5 hPa 0,0 l/m 2 min 0 min 0,9 UV-I 605 W/m 12,9 km/h (3 Bft)
06.05.2014 16:56 20,0 C 18,9 C 64 % 1007,5 hPa 0,0 l/m 0 min 0 min 1,3 UV-I 121 W/m 15,4 km/h (3 Bft)
06.05.2014 16:58 19,9 C 18,9 C 65 % 1007,5 hPa 0,0 l/m 2 min 0 min 1,4 UV-I 531 W/m 25,7 km/h (4 Bft)
06.05.2014 17:00 20,0 C 18,9 C 64 % 1007,5 hPa 0,0 l/m 0 min 0 min 0,9 UV-I 163 W/m 10,3 km/h (2 Bft)
06.05.2014 17:02 19,9 C 18,9 C 64 % 1007,5 hPa 0,0 l/m 2 min 0 min 1,6 UV-I 638 W/m 15,4 km/h (3 Bft)
06.05.2014 17:06 20,4 C 19,4 C 63 % 1007,6 hPa 0,0 l/m 2 min 0 min 1,6 UV-I 628 W/m 25,7 km/h (4 Bft)
06.05.2014 17:08 20,6 C 19,4 C 63 % 1007,5 hPa 0,0 l/m 2 min 0 min 1,5 UV-I 585 W/m 10,3 km/h (2 Bft)
06.05.2014 17:10 20,7 C 19,4 C 62 % 1007,5 hPa 0,0 l/m 2 min 0 min 1,4 UV-I 575 W/m 20,6 km/h (4 Bft)
06.05.2014 17:12 20,6 C 19,4 C 61 % 1007,4 hPa 0,0 l/m 2 min 0 min 1,0 UV-I 585 W/m 15,4 km/h (3 Bft)
06.05.2014 17:14 20,6 C 19,4 C 62 % 1007,3 hPa 0,0 l/m 2 min 0 min 1,3 UV-I 575 W/m 15,4 km/h (3 Bft)
06.05.2014 17:16 20,5 C 19,4 C 61 % 1007,4 hPa 0,0 l/m 2 min 0 min 1,4 UV-I 585 W/m 18,0 km/h (3 Bft)
06.05.2014 17:18 20,5 C 19,4 C 61 % 1007,3 hPa 0,0 l/m 2 min 0 min 1,3 UV-I 557 W/m 15,4 km/h (3 Bft)
06.05.2014 17:20 20,5 C 19,4 C 62 % 1007,4 hPa 0,0 l/m 2 min 0 min 1,3 UV-I 552 W/m 15,4 km/h (3 Bft)
06.05.2014 17:22 20,6 C 19,4 C 62 % 1007,3 hPa 0,0 l/m 2 min 0 min 1,2 UV-I 531 W/m 12,9 km/h (3 Bft)
06.05.2014 17:24 20,6 C 19,4 C 61 % 1007,3 hPa 0,0 l/m 2 min 0 min 1,2 UV-I 533 W/m 10,3 km/h (2 Bft)
06.05.2014 17:26 20,7 C 19,4 C 61 % 1007,2 hPa 0,0 l/m 2 min 0 min 1,2 UV-I 541 W/m 5,1 km/h (1 Bft)
06.05.2014 17:28 20,7 C 19,4 C 61 % 1007,2 hPa 0,0 l/m 2 min 0 min 1,2 UV-I 561 W/m 18,0 km/h (3 Bft)
06.05.2014 17:30 20,7 C 19,4 C 62 % 1007,2 hPa 0,0 l/m 2 min 0 min 1,2 UV-I 563 W/m 18,0 km/h (3 Bft)
06.05.2014 17:32 20,6 C 19,4 C 61 % 1007,2 hPa 0,0 l/m 0 min 0 min 0,5 UV-I 148 W/m 7,7 km/h (2 Bft)
06.05.2014 17:34 20,3 C 18,9 C 61 % 1007,2 hPa 0,0 l/m 0 min 0 min 0,5 UV-I 176 W/m 12,9 km/h (3 Bft)
06.05.2014 17:36 20,1 C 18,9 C 63 % 1007,3 hPa 0,0 l/m 0 min 0 min 0,0 UV-I 193 W/m 10,3 km/h (2 Bft)
06.05.2014 17:38 20,0 C 18,9 C 64 % 1007,2 hPa 0,0 l/m 2 min 0 min 0,6 UV-I 301 W/m 5,1 km/h (1 Bft)
06.05.2014 17:40 20,0 C 18,9 C 63 % 1007,2 hPa 0,0 l/m 2 min 0 min 0,7 UV-I 540 W/m 15,4 km/h (3 Bft)
06.05.2014 17:42 20,1 C 19,4 C 64 % 1007,2 hPa 0,0 l/m 2 min 0 min 1,0 UV-I 520 W/m 12,9 km/h (3 Bft)
06.05.2014 17:44 20,2 C 18,9 C 62 % 1007,2 hPa 0,0 l/m 2 min 0 min 0,9 UV-I 536 W/m 18,0 km/h (3 Bft)
06.05.2014 17:46 20,3 C 18,9 C 62 % 1007,1 hPa 0,0 l/m 2 min 0 min 0,6 UV-I 522 W/m 15,4 km/h (3 Bft)
06.05.2014 17:48 20,3 C 18,9 C 63 % 1007,0 hPa 0,0 l/m 2 min 0 min 0,5 UV-I 522 W/m 5,1 km/h (1 Bft)
06.05.2014 17:50 20,3 C 18,9 C 63 % 1007,0 hPa 0,0 l/m 2 min 0 min 0,8 UV-I 438 W/m 10,3 km/h (2 Bft)
06.05.2014 17:52 20,4 C 18,9 C 62 % 1006,9 hPa 0,0 l/m 2 min 0 min 0,8 UV-I 411 W/m 15,4 km/h (3 Bft)
06.05.2014 17:54 20,4 C 18,9 C 62 % 1006,9 hPa 0,0 l/m 2 min 0 min 0,7 UV-I 418 W/m 10,3 km/h (2 Bft)
06.05.2014 17:56 20,4 C 18,9 C 60 % 1006,8 hPa 0,0 l/m 2 min 0 min 0,8 UV-I 410 W/m 12,9 km/h (3 Bft)
06.05.2014 17:58 20,3 C 18,9 C 61 % 1006,9 hPa 0,0 l/m 2 min 0 min 0,7 UV-I 432 W/m 10,3 km/h (2 Bft)
06.05.2014 18:00 20,4 C 18,9 C 62 % 1006,9 hPa 0,0 l/m 2 min 0 min 0,7 UV-I 432 W/m 15,4 km/h (3 Bft)
06.05.2014 18:02 20,4 C 18,9 C 62 % 1006,8 hPa 0,0 l/m 2 min 0 min 0,7 UV-I 396 W/m 7,7 km/h (2 Bft)
06.05.2014 18:06 20,5 C 18,3 C 62 % 1006,9 hPa 0,0 l/m 2 min 0 min 0,5 UV-I 373 W/m 5,1 km/h (1 Bft)
06.05.2014 18:08 20,5 C 18,3 C 62 % 1007,0 hPa 0,0 l/m 2 min 0 min 0,6 UV-I 246 W/m 7,7 km/h (2 Bft)
06.05.2014 18:10 20,5 C 18,3 C 60 % 1006,9 hPa 0,0 l/m 2 min 0 min 0,0 UV-I 281 W/m 7,7 km/h (2 Bft)
06.05.2014 18:12 20,3 C 18,3 C 61 % 1006,9 hPa 0,0 l/m 0 min 0 min 0,0 UV-I 156 W/m 20,6 km/h (4 Bft)
06.05.2014 18:14 20,2 C 18,3 C 62 % 1006,9 hPa 0,0 l/m 2 min 0 min 0,5 UV-I 304 W/m 7,7 km/h (2 Bft)
06.05.2014 18:16 20,2 C 18,9 C 62 % 1006,9 hPa 0,0 l/m 0 min 0 min 0,0 UV-I 176 W/m 10,3 km/h (2 Bft)
06.05.2014 18:18 20,2 C 18,9 C 62 % 1006,9 hPa 0,0 l/m 0 min 0 min 0,0 UV-I 151 W/m 10,3 km/h (2 Bft)
06.05.2014 18:20 20,3 C 18,9 C 62 % 1006,8 hPa 0,0 l/m 0 min 0 min 0,0 UV-I 123 W/m 0,0 km/h (0 Bft)
06.05.2014 18:22 20,2 C 18,9 C 63 % 1006,8 hPa 0,0 l/m 0 min 0 min 0,0 UV-I 125 W/m 10,3 km/h (2 Bft)
06.05.2014 18:24 20,1 C 18,9 C 62 % 1006,8 hPa 0,0 l/m 0 min 0 min 0,0 UV-I 134 W/m 12,9 km/h (3 Bft)
06.05.2014 18:26 20,0 C 18,9 C 62 % 1006,9 hPa 0,0 l/m 0 min 0 min 0,0 UV-I 146 W/m 10,3 km/h (2 Bft)
06.05.2014 18:28 19,9 C 18,9 C 64 % 1006,8 hPa 0,0 l/m 0 min 0 min 0,0 UV-I 156 W/m 10,3 km/h (2 Bft)
06.05.2014 18:30 19,9 C 18,9 C 64 % 1006,9 hPa 0,0 l/m 0 min 0 min 0,0 UV-I 142 W/m 0,0 km/h (0 Bft)
06.05.2014 18:32 19,8 C 18,9 C 63 % 1006,9 hPa 0,0 l/m 0 min 0 min 0,0 UV-I 130 W/m 2,6 km/h (1 Bft)
06.05.2014 18:34 19,8 C 18,3 C 62 % 1006,9 hPa 0,0 l/m 0 min 0 min 0,0 UV-I 113 W/m 12,9 km/h (3 Bft)
06.05.2014 18:36 19,7 C 18,3 C 62 % 1006,9 hPa 0,0 l/m 0 min 0 min 0,0 UV-I 102 W/m 10,3 km/h (2 Bft)
06.05.2014 18:38 19,7 C 18,3 C 62 % 1006,9 hPa 0,0 l/m 0 min 0 min 0,0 UV-I 90 W/m 18,0 km/h (3 Bft)
06.05.2014 18:40 19,6 C 18,3 C 62 % 1006,9 hPa 0,0 l/m 0 min 0 min 0,0 UV-I 77 W/m 12,9 km/h (3 Bft)
06.05.2014 18:42 19,5 C 17,8 C 62 % 1006,9 hPa 0,0 l/m 0 min 0 min 0,0 UV-I 63 W/m 20,6 km/h (4 Bft)
06.05.2014 18:44 19,4 C 17,8 C 62 % 1006,8 hPa 0,0 l/m 0 min 0 min 0,0 UV-I 60 W/m 7,7 km/h (2 Bft)
06.05.2014 18:46 19,4 C 17,8 C 63 % 1006,8 hPa 0,0 l/m 0 min 0 min 0,0 UV-I 60 W/m 12,9 km/h (3 Bft)
06.05.2014 18:48 19,3 C 17,8 C 63 % 1006,8 hPa 0,0 l/m 0 min 0 min 0,0 UV-I 65 W/m 2,6 km/h (1 Bft)
06.05.2014 18:50 19,3 C 17,8 C 63 % 1006,8 hPa 0,0 l/m 0 min 0 min 0,0 UV-I 67 W/m 7,7 km/h (2 Bft)
06.05.2014 18:52 19,2 C 17,8 C 63 % 1006,8 hPa 0,0 l/m 0 min 0 min 0,0 UV-I 62 W/m 15,4 km/h (3 Bft)
06.05.2014 18:54 19,2 C 17,8 C 64 % 1006,8 hPa 0,0 l/m 0 min 0 min 0,0 UV-I 56 W/m 2,6 km/h (1 Bft)
06.05.2014 18:56 19,2 C 17,2 C 64 % 1006,8 hPa 0,0 l/m 0 min 0 min 0,0 UV-I 56 W/m 7,7 km/h (2 Bft)
06.05.2014 18:58 19,2 C 16,7 C 65 % 1006,8 hPa 0,0 l/m 0 min 2 min 0,0 UV-I 53 W/m 10,3 km/h (2 Bft)
06.05.2014 19:00 19,1 C 16,1 C 65 % 1006,8 hPa 0,0 l/m 0 min 2 min 0,0 UV-I 39 W/m 7,7 km/h (2 Bft)
06.05.2014 19:02 19,1 C 16,1 C 65 % 1006,7 hPa 0,0 l/m 0 min 2 min 0,0 UV-I 32 W/m 7,7 km/h (2 Bft)
06.05.2014 19:06 18,9 C 16,1 C 66 % 1006,7 hPa 0,0 l/m 0 min 2 min 0,0 UV-I 30 W/m 5,1 km/h (1 Bft)
06.05.2014 19:08 18,8 C 16,1 C 66 % 1006,7 hPa 0,0 l/m 0 min 2 min 0,0 UV-I 32 W/m 0,0 km/h (0 Bft)
06.05.2014 19:10 18,8 C 16,1 C 67 % 1006,7 hPa 0,0 l/m 0 min 2 min 0,0 UV-I 32 W/m 0,0 km/h (0 Bft)
06.05.2014 19:12 18,7 C 16,1 C 68 % 1006,8 hPa 0,0 l/m 0 min 2 min 0,0 UV-I 25 W/m 2,6 km/h (1 Bft)
06.05.2014 19:14 18,6 C 15,6 C 69 % 1006,8 hPa 0,0 l/m 0 min 2 min 0,0 UV-I 21 W/m 0,0 km/h (0 Bft)
06.05.2014 19:16 18,4 C 14,4 C 71 % 1007,0 hPa 0,0 l/m 0 min 2 min 0,0 UV-I 32 W/m 12,9 km/h (3 Bft)
06.05.2014 19:18 18,2 C 13,9 C 73 % 1007,5 hPa 0,2 l/m 0 min 2 min 0,0 UV-I 67 W/m 20,6 km/h (4 Bft)
06.05.2014 19:20 17,7 C 13,3 C 76 % 1007,5 hPa 0,0 l/m 0 min 2 min 0,0 UV-I 81 W/m 25,7 km/h (4 Bft)
06.05.2014 19:22 17,0 C 13,3 C 80 % 1007,4 hPa 0,0 l/m 0 min 2 min 0,0 UV-I 93 W/m 12,9 km/h (3 Bft)
06.05.2014 19:24 16,6 C 13,3 C 82 % 1007,5 hPa 0,0 l/m 0 min 2 min 0,0 UV-I 116 W/m 12,9 km/h (3 Bft)
06.05.2014 19:26 16,2 C 13,9 C 84 % 1007,5 hPa 0,0 l/m 0 min 0 min 0,0 UV-I 125 W/m 18,0 km/h (3 Bft)
06.05.2014 19:28 16,0 C 13,9 C 86 % 1007,4 hPa 0,0 l/m 2 min 0 min 0,0 UV-I 128 W/m 2,6 km/h (1 Bft)
06.05.2014 19:30 15,9 C 13,9 C 87 % 1007,4 hPa 0,0 l/m 0 min 0 min 0,0 UV-I 104 W/m 2,6 km/h (1 Bft)
06.05.2014 19:32 15,8 C 13,9 C 88 % 1007,4 hPa 0,0 l/m 0 min 0 min 0,0 UV-I 90 W/m 7,7 km/h (2 Bft)
06.05.2014 19:34 15,8 C 13,9 C 88 % 1007,4 hPa 0,0 l/m 0 min 0 min 0,0 UV-I 74 W/m 10,3 km/h (2 Bft)
06.05.2014 19:36 15,7 C 13,9 C 88 % 1007,3 hPa 0,0 l/m 0 min 0 min 0,0 UV-I 46 W/m 2,6 km/h (1 Bft)
06.05.2014 19:38 15,7 C 13,3 C 88 % 1007,3 hPa 0,0 l/m 0 min 0 min 0,0 UV-I 33 W/m 7,7 km/h (2 Bft)
06.05.2014 19:40 15,7 C 13,3 C 88 % 1007,3 hPa 0,0 l/m 0 min 0 min 0,0 UV-I 40 W/m 2,6 km/h (1 Bft)
06.05.2014 19:42 15,7 C 13,3 C 88 % 1007,3 hPa 0,0 l/m 0 min 0 min 0,0 UV-I 56 W/m 5,1 km/h (1 Bft)
06.05.2014 19:44 15,7 C 13,3 C 88 % 1007,3 hPa 0,0 l/m 0 min 0 min 0,0 UV-I 62 W/m 2,6 km/h (1 Bft)
06.05.2014 19:46 15,7 C 13,3 C 88 % 1007,3 hPa 0,0 l/m 0 min 0 min 0,0 UV-I 56 W/m 0,0 km/h (0 Bft)
06.05.2014 19:48 15,7 C 13,3 C 88 % 1007,3 hPa 0,0 l/m 0 min 0 min 0,0 UV-I 44 W/m 0,0 km/h (0 Bft)
06.05.2014 19:50 15,7 C 13,3 C 88 % 1007,3 hPa 0,0 l/m 0 min 0 min 0,0 UV-I 35 W/m 0,0 km/h (0 Bft)
06.05.2014 19:52 15,7 C 13,9 C 88 % 1007,2 hPa 0,0 l/m 0 min 0 min 0,0 UV-I 23 W/m 0,0 km/h (0 Bft)
06.05.2014 19:54 15,7 C 13,3 C 88 % 1007,3 hPa 0,0 l/m 0 min 0 min 0,0 UV-I 18 W/m 0,0 km/h (0 Bft)
06.05.2014 19:56 15,7 C 13,3 C 88 % 1007,3 hPa 0,0 l/m 0 min 0 min 0,0 UV-I 14 W/m 0,0 km/h (0 Bft)
06.05.2014 19:58 15,7 C 13,3 C 89 % 1007,3 hPa 0,0 l/m 0 min 2 min 0,0 UV-I 12 W/m 0,0 km/h (0 Bft)
06.05.2014 20:00 15,6 C 13,3 C 89 % 1007,3 hPa 0,0 l/m 0 min 0 min 0,0 UV-I 12 W/m 0,0 km/h (0 Bft)
06.05.2014 20:02 15,6 C 13,3 C 89 % 1007,3 hPa 0,0 l/m 0 min 0 min 0,0 UV-I 12 W/m 5,1 km/h (1 Bft)
06.05.2014 20:06 15,5 C 13,3 C 89 % 1007,3 hPa 0,0 l/m 0 min 0 min 0,0 UV-I 16 W/m 0,0 km/h (0 Bft)
06.05.2014 20:08 15,5 C 13,3 C 89 % 1007,3 hPa 0,0 l/m 0 min 0 min 0,0 UV-I 14 W/m 0,0 km/h (0 Bft)
06.05.2014 20:10 15,5 C 13,3 C 89 % 1007,3 hPa 0,0 l/m 0 min 0 min 0,0 UV-I 12 W/m 0,0 km/h (0 Bft)
06.05.2014 20:12 15,4 C 13,3 C 90 % 1007,2 hPa 0,0 l/m 0 min 0 min 0,0 UV-I 14 W/m 0,0 km/h (0 Bft)
06.05.2014 20:14 15,4 C 13,3 C 90 % 1007,2 hPa 0,0 l/m 0 min 0 min 0,0 UV-I 16 W/m 0,0 km/h (0 Bft)
06.05.2014 20:16 15,4 C 13,3 C 90 % 1007,2 hPa 0,0 l/m 0 min 0 min 0,0 UV-I 21 W/m 0,0 km/h (0 Bft)
06.05.2014 20:18 15,4 C 13,3 C 90 % 1007,2 hPa 0,0 l/m 0 min 0 min 0,0 UV-I 21 W/m 0,0 km/h (0 Bft)
06.05.2014 20:20 15,4 C 13,3 C 90 % 1007,2 hPa 0,0 l/m 0 min 0 min 0,0 UV-I 18 W/m 0,0 km/h (0 Bft)
06.05.2014 20:22 15,4 C 13,3 C 90 % 1007,2 hPa 0,0 l/m 0 min 0 min 0,0 UV-I 12 W/m 2,6 km/h (1 Bft)
06.05.2014 20:24 15,3 C 13,3 C 90 % 1007,2 hPa 0,0 l/m 0 min 0 min 0,0 UV-I 12 W/m 0,0 km/h (0 Bft)
06.05.2014 20:26 15,3 C 13,3 C 91 % 1007,2 hPa 0,0 l/m 0 min 0 min 0,0 UV-I 11 W/m 0,0 km/h (0 Bft)
06.05.2014 20:28 15,3 C 13,3 C 91 % 1007,2 hPa 0,0 l/m 0 min 0 min 0,0 UV-I 7 W/m 0,0 km/h (0 Bft)
06.05.2014 20:30 15,3 C 13,3 C 91 % 1007,1 hPa 0,0 l/m 0 min 0 min 0,0 UV-I 5 W/m 2,6 km/h (1 Bft)
06.05.2014 20:32 15,2 C 13,3 C 91 % 1007,1 hPa 0,0 l/m 0 min 0 min 0,0 UV-I 5 W/m 2,6 km/h (1 Bft)
06.05.2014 20:34 15,2 C 13,3 C 91 % 1007,0 hPa 0,0 l/m 0 min 0 min 0,0 UV-I 5 W/m 0,0 km/h (0 Bft)
06.05.2014 20:36 15,2 C 13,3 C 91 % 1007,1 hPa 0,0 l/m 0 min 0 min 0,0 UV-I 5 W/m 2,6 km/h (1 Bft)
06.05.2014 20:38 15,2 C 13,3 C 91 % 1007,2 hPa 0,0 l/m 0 min 0 min 0,0 UV-I 5 W/m 0,0 km/h (0 Bft)
06.05.2014 20:40 15,1 C 13,3 C 91 % 1007,1 hPa 0,0 l/m 0 min 0 min 0,0 UV-I 7 W/m 0,0 km/h (0 Bft)
06.05.2014 20:42 15,1 C 13,3 C 91 % 1007,1 hPa 0,0 l/m 0 min 0 min 0,0 UV-I 7 W/m 0,0 km/h (0 Bft)
06.05.2014 20:44 15,1 C 13,3 C 91 % 1007,1 hPa 0,0 l/m 0 min 0 min 0,0 UV-I 7 W/m 0,0 km/h (0 Bft)
06.05.2014 20:46 15,1 C 13,3 C 92 % 1007,0 hPa 0,0 l/m 0 min 0 min 0,0 UV-I 5 W/m 0,0 km/h (0 Bft)
06.05.2014 20:48 15,1 C 13,3 C 92 % 1007,0 hPa 0,0 l/m 0 min 0 min 0,0 UV-I 5 W/m 0,0 km/h (0 Bft)
06.05.2014 20:50 15,1 C 13,3 C 92 % 1007,0 hPa 0,0 l/m 0 min 0 min 0,0 UV-I 0 W/m 0,0 km/h (0 Bft)
06.05.2014 20:52 15,0 C 13,3 C 92 % 1007,0 hPa 0,0 l/m 0 min 0 min 0,0 UV-I 0 W/m 0,0 km/h (0 Bft)
06.05.2014 20:54 15,0 C 13,3 C 92 % 1007,0 hPa 0,0 l/m 0 min 0 min 0,0 UV-I 0 W/m 0,0 km/h (0 Bft)
06.05.2014 20:56 15,0 C 13,3 C 92 % 1007,0 hPa 0,0 l/m 0 min 0 min 0,0 UV-I 0 W/m 0,0 km/h (0 Bft)
06.05.2014 20:58 15,0 C 13,3 C 92 % 1007,0 hPa 0,0 l/m 0 min 0 min 0,0 UV-I 0 W/m 0,0 km/h (0 Bft)
06.05.2014 21:00 15,0 C 13,3 C 92 % 1006,8 hPa 0,0 l/m 0 min 0 min 0,0 UV-I 0 W/m 2,6 km/h (1 Bft)
06.05.2014 21:02 15,0 C 13,3 C 92 % 1006,8 hPa 0,0 l/m 0 min 0 min 0,0 UV-I 0 W/m 0,0 km/h (0 Bft)
06.05.2014 21:06 15,0 C 13,3 C 92 % 1007,0 hPa 0,0 l/m 0 min 2 min 0,0 UV-I 0 W/m 2,6 km/h (1 Bft)
06.05.2014 21:08 15,0 C 13,3 C 93 % 1007,1 hPa 0,2 l/m 0 min 2 min 0,0 UV-I 0 W/m 0,0 km/h (0 Bft)
06.05.2014 21:10 15,0 C 13,3 C 93 % 1007,2 hPa 0,2 l/m 0 min 2 min 0,0 UV-I 0 W/m 0,0 km/h (0 Bft)
06.05.2014 21:12 15,0 C 13,3 C 93 % 1007,2 hPa 0,4 l/m 0 min 2 min 0,0 UV-I 0 W/m 2,6 km/h (1 Bft)
06.05.2014 21:14 14,9 C 13,3 C 95 % 1007,2 hPa 0,4 l/m 0 min 2 min 0,0 UV-I 0 W/m 0,0 km/h (0 Bft)
06.05.2014 21:16 14,9 C 13,3 C 93 % 1007,1 hPa 0,2 l/m 0 min 2 min 0,0 UV-I 0 W/m 0,0 km/h (0 Bft)
06.05.2014 21:18 14,9 C 13,3 C 94 % 1007,0 hPa 0,2 l/m 0 min 2 min 0,0 UV-I 0 W/m 2,6 km/h (1 Bft)
06.05.2014 21:20 14,8 C 13,3 C 94 % 1007,0 hPa 0,0 l/m 0 min 2 min 0,0 UV-I 0 W/m 0,0 km/h (0 Bft)
06.05.2014 21:22 14,8 C 13,3 C 94 % 1007,0 hPa 0,2 l/m 0 min 2 min 0,0 UV-I 0 W/m 0,0 km/h (0 Bft)
06.05.2014 21:24 14,7 C 12,8 C 94 % 1007,0 hPa 0,0 l/m 0 min 2 min 0,0 UV-I 0 W/m 0,0 km/h (0 Bft)
06.05.2014 21:26 14,6 C 12,8 C 94 % 1007,0 hPa 0,0 l/m 0 min 2 min 0,0 UV-I 0 W/m 0,0 km/h (0 Bft)
06.05.2014 21:28 14,6 C 12,8 C 94 % 1007,1 hPa 0,0 l/m 0 min 2 min 0,0 UV-I 0 W/m 0,0 km/h (0 Bft)
06.05.2014 21:30 14,6 C 12,8 C 95 % 1007,0 hPa 0,0 l/m 0 min 2 min 0,0 UV-I 0 W/m 0,0 km/h (0 Bft)
06.05.2014 21:32 14,5 C 12,8 C 95 % 1006,9 hPa 0,0 l/m 0 min 2 min 0,0 UV-I 0 W/m 7,7 km/h (2 Bft)
06.05.2014 21:34 14,4 C 12,8 C 95 % 1007,0 hPa 0,0 l/m 0 min 0 min 0,0 UV-I 0 W/m 2,6 km/h (1 Bft)
06.05.2014 21:36 14,3 C 12,8 C 95 % 1006,9 hPa 0,0 l/m 0 min 0 min 0,0 UV-I 0 W/m 2,6 km/h (1 Bft)
06.05.2014 21:38 14,3 C 12,8 C 95 % 1006,9 hPa 0,0 l/m 0 min 0 min 0,0 UV-I 0 W/m 5,1 km/h (1 Bft)
06.05.2014 21:40 14,2 C 12,8 C 95 % 1006,9 hPa 0,0 l/m 0 min 0 min 0,0 UV-I 0 W/m 2,6 km/h (1 Bft)
06.05.2014 21:42 14,2 C 12,8 C 95 % 1006,9 hPa 0,0 l/m 0 min 0 min 0,0 UV-I 0 W/m 2,6 km/h (1 Bft)
06.05.2014 21:44 14,2 C 12,8 C 95 % 1006,9 hPa 0,0 l/m 0 min 0 min 0,0 UV-I 0 W/m 2,6 km/h (1 Bft)
06.05.2014 21:46 14,2 C 12,8 C 95 % 1006,9 hPa 0,0 l/m 0 min 0 min 0,0 UV-I 0 W/m 7,7 km/h (2 Bft)
06.05.2014 21:48 14,2 C 12,8 C 96 % 1006,9 hPa 0,0 l/m 0 min 0 min 0,0 UV-I 0 W/m 0,0 km/h (0 Bft)
06.05.2014 21:50 14,2 C 12,8 C 96 % 1006,9 hPa 0,0 l/m 0 min 0 min 0,0 UV-I 0 W/m 0,0 km/h (0 Bft)
06.05.2014 21:52 14,1 C 12,8 C 95 % 1006,9 hPa 0,0 l/m 0 min 0 min 0,0 UV-I 0 W/m 0,0 km/h (0 Bft)
06.05.2014 21:54 14,1 C 12,8 C 96 % 1006,9 hPa 0,0 l/m 0 min 0 min 0,0 UV-I 0 W/m 5,1 km/h (1 Bft)
06.05.2014 21:56 14,0 C 12,2 C 96 % 1007,0 hPa 0,0 l/m 0 min 0 min 0,0 UV-I 0 W/m 2,6 km/h (1 Bft)
06.05.2014 21:58 14,0 C 12,2 C 96 % 1006,9 hPa 0,0 l/m 0 min 0 min 0,0 UV-I 0 W/m 0,0 km/h (0 Bft)
06.05.2014 22:00 14,0 C 12,2 C 96 % 1006,9 hPa 0,0 l/m 0 min 0 min 0,0 UV-I 0 W/m 0,0 km/h (0 Bft)
06.05.2014 22:02 13,9 C 12,2 C 96 % 1006,9 hPa 0,0 l/m 0 min 2 min 0,0 UV-I 0 W/m 0,0 km/h (0 Bft)
06.05.2014 22:06 13,9 C 12,8 C 96 % 1006,9 hPa 0,0 l/m 0 min 2 min 0,0 UV-I 0 W/m 0,0 km/h (0 Bft)
06.05.2014 22:08 13,9 C 12,2 C 96 % 1006,9 hPa 0,0 l/m 0 min 2 min 0,0 UV-I 0 W/m 0,0 km/h (0 Bft)
06.05.2014 22:10 13,9 C 12,8 C 96 % 1006,9 hPa 0,2 l/m 0 min 2 min 0,0 UV-I 0 W/m 0,0 km/h (0 Bft)
06.05.2014 22:12 13,9 C 12,2 C 96 % 1006,9 hPa 0,0 l/m 0 min 2 min 0,0 UV-I 0 W/m 5,1 km/h (1 Bft)
06.05.2014 22:14 14,0 C 12,8 C 96 % 1006,9 hPa 0,2 l/m 0 min 2 min 0,0 UV-I 0 W/m 2,6 km/h (1 Bft)
06.05.2014 22:16 13,9 C 12,8 C 96 % 1006,9 hPa 0,2 l/m 0 min 2 min 0,0 UV-I 0 W/m 2,6 km/h (1 Bft)
06.05.2014 22:18 13,9 C 12,2 C 96 % 1006,7 hPa 0,2 l/m 0 min 2 min 0,0 UV-I 0 W/m 7,7 km/h (2 Bft)
06.05.2014 22:20 13,9 C 12,2 C 96 % 1006,7 hPa 0,2 l/m 0 min 2 min 0,0 UV-I 0 W/m 2,6 km/h (1 Bft)
06.05.2014 22:22 13,8 C 12,2 C 96 % 1006,7 hPa 0,0 l/m 0 min 2 min 0,0 UV-I 0 W/m 5,1 km/h (1 Bft)
06.05.2014 22:24 13,8 C 12,2 C 96 % 1006,6 hPa 0,2 l/m 0 min 2 min 0,0 UV-I 0 W/m 2,6 km/h (1 Bft)
06.05.2014 22:26 13,8 C 12,2 C 96 % 1006,6 hPa 0,2 l/m 0 min 2 min 0,0 UV-I 0 W/m 12,9 km/h (3 Bft)
06.05.2014 22:28 13,7 C 12,2 C 96 % 1006,5 hPa 0,0 l/m 0 min 2 min 0,0 UV-I 0 W/m 10,3 km/h (2 Bft)
06.05.2014 22:30 13,7 C 12,2 C 96 % 1006,6 hPa 0,0 l/m 0 min 2 min 0,0 UV-I 0 W/m 7,7 km/h (2 Bft)
06.05.2014 22:32 13,7 C 12,2 C 96 % 1006,6 hPa 0,0 l/m 0 min 2 min 0,0 UV-I 0 W/m 10,3 km/h (2 Bft)
06.05.2014 22:34 13,8 C 12,2 C 96 % 1006,5 hPa 0,0 l/m 0 min 2 min 0,0 UV-I 0 W/m 5,1 km/h (1 Bft)
06.05.2014 22:36 13,8 C 12,2 C 96 % 1006,5 hPa 0,0 l/m 0 min 2 min 0,0 UV-I 0 W/m 0,0 km/h (0 Bft)
06.05.2014 22:38 13,7 C 12,2 C 97 % 1006,6 hPa 0,0 l/m 0 min 2 min 0,0 UV-I 0 W/m 2,6 km/h (1 Bft)
06.05.2014 22:40 13,4 C 12,2 C 96 % 1006,5 hPa 0,0 l/m 0 min 0 min 0,0 UV-I 0 W/m 10,3 km/h (2 Bft)
06.05.2014 22:42 13,4 C 11,7 C 96 % 1006,5 hPa 0,0 l/m 0 min 0 min 0,0 UV-I 0 W/m 2,6 km/h (1 Bft)
06.05.2014 22:44 13,3 C 11,7 C 96 % 1006,5 hPa 0,0 l/m 0 min 0 min 0,0 UV-I 0 W/m 5,1 km/h (1 Bft)
06.05.2014 22:46 13,3 C 11,7 C 96 % 1006,5 hPa 0,0 l/m 0 min 2 min 0,0 UV-I 0 W/m 0,0 km/h (0 Bft)
06.05.2014 22:48 13,3 C 11,7 C 96 % 1006,5 hPa 0,0 l/m 0 min 2 min 0,0 UV-I 0 W/m 5,1 km/h (1 Bft)
06.05.2014 22:50 13,3 C 11,7 C 96 % 1006,5 hPa 0,0 l/m 0 min 2 min 0,0 UV-I 0 W/m 0,0 km/h (0 Bft)
06.05.2014 22:52 13,3 C 12,2 C 96 % 1006,5 hPa 0,0 l/m 0 min 2 min 0,0 UV-I 0 W/m 2,6 km/h (1 Bft)
06.05.2014 22:54 13,4 C 11,7 C 96 % 1006,6 hPa 0,0 l/m 0 min 2 min 0,0 UV-I 0 W/m 0,0 km/h (0 Bft)
06.05.2014 22:56 13,4 C 12,2 C 96 % 1006,5 hPa 0,2 l/m 0 min 2 min 0,0 UV-I 0 W/m 2,6 km/h (1 Bft)
06.05.2014 22:58 13,4 C 12,2 C 96 % 1006,6 hPa 0,0 l/m 0 min 2 min 0,0 UV-I 0 W/m 0,0 km/h (0 Bft)
06.05.2014 23:00 13,5 C 12,2 C 96 % 1006,7 hPa 0,0 l/m 0 min 2 min 0,0 UV-I 0 W/m 0,0 km/h (0 Bft)
06.05.2014 23:02 13,5 C 12,2 C 96 % 1006,7 hPa 0,2 l/m 0 min 2 min 0,0 UV-I 0 W/m 0,0 km/h (0 Bft)
06.05.2014 23:06 13,6 C 12,2 C 97 % 1006,8 hPa 0,0 l/m 0 min 2 min 0,0 UV-I 0 W/m 7,7 km/h (2 Bft)
06.05.2014 23:08 13,6 C 12,2 C 97 % 1006,9 hPa 0,0 l/m 0 min 2 min 0,0 UV-I 0 W/m 0,0 km/h (0 Bft)
06.05.2014 23:10 13,6 C 12,2 C 97 % 1006,8 hPa 0,0 l/m 0 min 2 min 0,0 UV-I 0 W/m 5,1 km/h (1 Bft)
06.05.2014 23:12 13,6 C 12,2 C 97 % 1006,9 hPa 0,2 l/m 0 min 2 min 0,0 UV-I 0 W/m 7,7 km/h (2 Bft)
06.05.2014 23:14 13,6 C 12,2 C 97 % 1006,9 hPa 0,0 l/m 0 min 2 min 0,0 UV-I 0 W/m 5,1 km/h (1 Bft)
06.05.2014 23:16 13,6 C 12,2 C 97 % 1006,9 hPa 0,0 l/m 0 min 2 min 0,0 UV-I 0 W/m 0,0 km/h (0 Bft)
06.05.2014 23:18 13,6 C 12,2 C 97 % 1006,8 hPa 0,2 l/m 0 min 2 min 0,0 UV-I 0 W/m 2,6 km/h (1 Bft)
06.05.2014 23:20 13,4 C 12,2 C 97 % 1006,9 hPa 0,0 l/m 0 min 2 min 0,0 UV-I 0 W/m 5,1 km/h (1 Bft)
06.05.2014 23:22 13,4 C 12,2 C 97 % 1006,9 hPa 0,0 l/m 0 min 2 min 0,0 UV-I 0 W/m 0,0 km/h (0 Bft)
06.05.2014 23:24 13,3 C 12,2 C 97 % 1006,9 hPa 0,2 l/m 0 min 2 min 0,0 UV-I 0 W/m 2,6 km/h (1 Bft)
06.05.2014 23:26 13,3 C 11,7 C 97 % 1006,9 hPa 0,0 l/m 0 min 2 min 0,0 UV-I 0 W/m 5,1 km/h (1 Bft)
06.05.2014 23:28 13,2 C 11,7 C 97 % 1006,9 hPa 0,0 l/m 0 min 2 min 0,0 UV-I 0 W/m 2,6 km/h (1 Bft)
06.05.2014 23:30 13,1 C 11,7 C 97 % 1006,9 hPa 0,2 l/m 0 min 2 min 0,0 UV-I 0 W/m 7,7 km/h (2 Bft)
06.05.2014 23:32 13,1 C 11,7 C 97 % 1006,9 hPa 0,2 l/m 0 min 2 min 0,0 UV-I 0 W/m 0,0 km/h (0 Bft)
06.05.2014 23:34 13,0 C 11,7 C 97 % 1006,9 hPa 0,2 l/m 0 min 2 min 0,0 UV-I 0 W/m 0,0 km/h (0 Bft)
06.05.2014 23:36 13,0 C 11,7 C 97 % 1007,0 hPa 0,0 l/m 0 min 2 min 0,0 UV-I 0 W/m 0,0 km/h (0 Bft)
06.05.2014 23:38 13,0 C 11,7 C 97 % 1007,0 hPa 0,2 l/m 0 min 2 min 0,0 UV-I 0 W/m 2,6 km/h (1 Bft)
06.05.2014 23:40 12,9 C 11,7 C 97 % 1007,0 hPa 0,0 l/m 0 min 2 min 0,0 UV-I 0 W/m 0,0 km/h (0 Bft)
06.05.2014 23:42 12,9 C 11,7 C 97 % 1006,9 hPa 0,0 l/m 0 min 2 min 0,0 UV-I 0 W/m 0,0 km/h (0 Bft)
06.05.2014 23:44 12,9 C 11,7 C 97 % 1006,8 hPa 0,0 l/m 0 min 2 min 0,0 UV-I 0 W/m 0,0 km/h (0 Bft)
06.05.2014 23:46 12,9 C 11,7 C 97 % 1006,9 hPa 0,0 l/m 0 min 2 min 0,0 UV-I 0 W/m 0,0 km/h (0 Bft)
06.05.2014 23:48 12,9 C 11,7 C 97 % 1006,9 hPa 0,2 l/m 0 min 2 min 0,0 UV-I 0 W/m 0,0 km/h (0 Bft)
06.05.2014 23:50 12,9 C 11,7 C 97 % 1006,8 hPa 0,0 l/m 0 min 2 min 0,0 UV-I 0 W/m 0,0 km/h (0 Bft)
06.05.2014 23:52 12,9 C 11,7 C 97 % 1006,9 hPa 0,0 l/m 0 min 2 min 0,0 UV-I 0 W/m 0,0 km/h (0 Bft)
06.05.2014 23:54 12,9 C 11,7 C 97 % 1006,9 hPa 0,0 l/m 0 min 2 min 0,0 UV-I 0 W/m 0,0 km/h (0 Bft)
06.05.2014 23:56 12,9 C 11,7 C 97 % 1007,0 hPa 0,0 l/m 0 min 2 min 0,0 UV-I 0 W/m 0,0 km/h (0 Bft)
06.05.2014 23:58 12,9 C 11,7 C 97 % 1007,1 hPa 0,0 l/m 0 min 0 min 0,0 UV-I 0 W/m 0,0 km/h (0 Bft)
_ Min-Zeit 05:38 04:40 17:56 22:28 - - - - - 00:22
Minimum _ 10,8 C 9,4 C 60 % 1006,5 hPa - - - - - 0,0 km/h (0 Bft)
_ Max-Zeit 17:10 16:38 22:38 00:00 21:12 09:42 12:16 15:02 15:06 16:38
Maximum _ 20,7 C 20,0 C 97 % 1011,1 hPa 0,4 l/m 2 min 2 min 4,1 UV-I 970 W/m 36,0 km/h
S (5 Bft)
Durchschnitt _ 15,0 C 13,8 C 75 % 1008,2 hPa #5,4 l/m #2:10 h #4:04 h 1,0 UV-I 206 W/m 9,1 km/h (2 Bft)
© 2014 W. Hausmann